| time (UTC) | temp F | wind direction | speed knots | gust knots | rain 1hr in | rain 24hr in | rain mn in | humidity % | barometer mb |
| 20260510130957 | 57 | 92 | 11.3 | 15.6 | 0.00 | 0.00 | 0.00 | 62 | 1014.8 |
| 20260510130857 | 57 | 94 | 10.4 | 13.0 | 0.00 | 0.00 | 0.00 | 61 | 1014.8 |
| 20260510130757 | 57 | 84 | 11.3 | 15.6 | 0.00 | 0.00 | 0.00 | 61 | 1014.8 |
| 20260510130627 | 57 | 86 | 11.3 | 13.9 | 0.00 | 0.00 | 0.00 | 62 | 1014.8 |
| 20260510130457 | 57 | 107 | 12.2 | 15.6 | 0.00 | 0.00 | 0.00 | 61 | 1014.8 |
| 20260510130357 | 57 | 88 | 11.3 | 17.4 | 0.00 | 0.00 | 0.00 | 62 | 1014.8 |
| 20260510130257 | 57 | 89 | 11.3 | 17.4 | 0.00 | 0.00 | 0.00 | 61 | 1014.9 |
| 20260510130127 | 58 | 90 | 11.3 | 14.8 | 0.00 | 0.00 | 0.00 | 62 | 1014.9 |
| 20260510130027 | 58 | 79 | 10.4 | 17.4 | 0.00 | 0.00 | 0.00 | 62 | 1014.9 |
| 20260510125927 | 58 | 76 | 10.4 | 13.9 | 0.00 | 0.00 | 0.00 | 62 | 1014.9 |
| 20260510125827 | 58 | 81 | 7.8 | 13.0 | 0.00 | 0.00 | 0.00 | 62 | 1014.9 |
| 20260510125657 | 58 | 86 | 11.3 | 14.8 | 0.00 | 0.00 | 0.00 | 61 | 1014.9 |
| 20260510125557 | 58 | 87 | 7.8 | 13.9 | 0.00 | 0.00 | 0.00 | 62 | 1014.9 |
| 20260510125427 | 58 | 74 | 10.4 | 13.9 | 0.00 | 0.00 | 0.00 | 61 | 1014.9 |
| 20260510125327 | 57 | 85 | 13.0 | 14.8 | 0.00 | 0.00 | 0.00 | 60 | 1015.0 |
| 20260510125157 | 58 | 74 | 12.2 | 15.6 | 0.00 | 0.00 | 0.00 | 61 | 1014.9 |
| 20260510125057 | 58 | 74 | 11.3 | 14.8 | 0.00 | 0.00 | 0.00 | 60 | 1015.0 |
| 20260510124957 | 58 | 88 | 13.0 | 17.4 | 0.00 | 0.00 | 0.00 | 61 | 1015.0 |
| 20260510124857 | 58 | 81 | 12.2 | 19.1 | 0.00 | 0.00 | 0.00 | 61 | 1015.0 |
| 20260510124757 | 58 | 84 | 13.0 | 13.9 | 0.00 | 0.00 | 0.00 | 60 | 1015.0 |
| 20260510124657 | 58 | 84 | 12.2 | 17.4 | 0.00 | 0.00 | 0.00 | 61 | 1015.0 |
| 20260510124527 | 58 | 87 | 12.2 | 15.6 | 0.00 | 0.00 | 0.00 | 60 | 1015.0 |
| 20260510124427 | 58 | 69 | 11.3 | 13.9 | 0.00 | 0.00 | 0.00 | 61 | 1015.1 |
| 20260510124327 | 58 | 69 | 10.4 | 17.4 | 0.00 | 0.00 | 0.00 | 60 | 1015.1 |
| 20260510124157 | 57 | 78 | 13.0 | 17.4 | 0.00 | 0.00 | 0.00 | 60 | 1015.1 |
| 20260510124027 | 58 | 80 | 13.9 | 19.1 | 0.00 | 0.00 | 0.00 | 59 | 1015.1 |
| 20260510123927 | 58 | 77 | 13.0 | 15.6 | 0.00 | 0.00 | 0.00 | 59 | 1015.1 |
| 20260510123827 | 58 | 78 | 13.9 | 17.4 | 0.00 | 0.00 | 0.00 | 60 | 1015.1 |
| 20260510123728 | 58 | 75 | 13.0 | 19.1 | 0.00 | 0.00 | 0.00 | 60 | 1015.1 |
| 20260510123557 | 58 | 74 | 12.2 | 15.6 | 0.00 | 0.00 | 0.00 | 60 | 1015.1 |
| 20260510123457 | 58 | 75 | 12.2 | 17.4 | 0.00 | 0.00 | 0.00 | 60 | 1015.1 |
| 20260510123327 | 58 | 78 | 12.2 | 17.4 | 0.00 | 0.00 | 0.00 | 60 | 1015.1 |
| 20260510123157 | 58 | 82 | 10.4 | 14.8 | 0.00 | 0.00 | 0.00 | 60 | 1015.1 |
| 20260510123057 | 58 | 86 | 12.2 | 14.8 | 0.00 | 0.00 | 0.00 | 60 | 1015.1 |
| 20260510122957 | 58 | 81 | 13.0 | 17.4 | 0.00 | 0.00 | 0.00 | 60 | 1015.1 |
| 20260510122857 | 58 | 88 | 12.2 | 15.6 | 0.00 | 0.00 | 0.00 | 59 | 1015.1 |
| 20260510122727 | 58 | 84 | 12.2 | 19.1 | 0.00 | 0.00 | 0.00 | 59 | 1015.1 |
| 20260510122557 | 58 | 69 | 12.2 | 20.9 | 0.00 | 0.00 | 0.00 | 60 | 1015.2 |
| 20260510122457 | 58 | 72 | 10.4 | 13.0 | 0.00 | 0.00 | 0.00 | 60 | 1015.1 |
| 20260510122327 | 57 | 72 | 11.3 | 13.9 | 0.00 | 0.00 | 0.00 | 60 | 1015.1 |
| 20260510122227 | 57 | 77 | 12.2 | 18.2 | 0.00 | 0.00 | 0.00 | 60 | 1015.1 |
| 20260510122127 | 58 | 85 | 11.3 | 15.6 | 0.00 | 0.00 | 0.00 | 61 | 1015.2 |
| 20260510122027 | 57 | 78 | 11.3 | 17.4 | 0.00 | 0.00 | 0.00 | 60 | 1015.2 |
| 20260510121857 | 57 | 77 | 12.2 | 17.4 | 0.00 | 0.00 | 0.00 | 60 | 1015.2 |
| 20260510121727 | 57 | 79 | 11.3 | 17.4 | 0.00 | 0.00 | 0.00 | 61 | 1015.2 |
| 20260510121557 | 57 | 74 | 11.3 | 14.8 | 0.00 | 0.00 | 0.00 | 60 | 1015.3 |
| 20260510121457 | 57 | 78 | 11.3 | 18.2 | 0.00 | 0.00 | 0.00 | 61 | 1015.2 |
| 20260510121357 | 57 | 70 | 10.4 | 17.4 | 0.00 | 0.00 | 0.00 | 60 | 1015.3 |
| 20260510121227 | 57 | 87 | 13.0 | 18.2 | 0.00 | 0.00 | 0.00 | 60 | 1015.3 |
| 20260510121127 | 57 | 82 | 13.0 | 20.0 | 0.00 | 0.00 | 0.00 | 61 | 1015.3 |
| 20260510121027 | 57 | 67 | 13.0 | 15.6 | 0.00 | 0.00 | 0.00 | 60 | 1015.3 |
| 20260510120857 | 57 | 73 | 11.3 | 18.2 | 0.00 | 0.00 | 0.00 | 60 | 1015.3 |
| 20260510120727 | 57 | 84 | 11.3 | 15.6 | 0.00 | 0.00 | 0.00 | 60 | 1015.3 |
| 20260510120557 | 57 | 63 | 12.2 | 15.6 | 0.00 | 0.00 | 0.00 | 60 | 1015.3 |
| 20260510120427 | 57 | 69 | 12.2 | 18.2 | 0.00 | 0.00 | 0.00 | 60 | 1015.4 |
| 20260510120327 | 57 | 72 | 10.4 | 17.4 | 0.00 | 0.00 | 0.00 | 61 | 1015.3 |
| 20260510120227 | 57 | 79 | 11.3 | 15.6 | 0.00 | 0.00 | 0.00 | 62 | 1015.3 |
| 20260510120127 | 57 | 70 | 11.3 | 14.8 | 0.00 | 0.00 | 0.00 | 62 | 1015.3 |
| 20260510120027 | 57 | 74 | 8.7 | 14.8 | 0.00 | 0.00 | 0.00 | 62 | 1015.3 |
| 20260510115857 | 57 | 71 | 11.3 | 13.9 | 0.00 | 0.00 | 0.00 | 62 | 1015.3 |
| 20260510115757 | 57 | 87 | 10.4 | 13.0 | 0.00 | 0.00 | 0.00 | 63 | 1015.3 |
| 20260510115657 | 57 | 75 | 10.4 | 14.8 | 0.00 | 0.00 | 0.00 | 62 | 1015.3 |
| 20260510115557 | 57 | 76 | 12.2 | 14.8 | 0.00 | 0.00 | 0.00 | 62 | 1015.3 |
| 20260510115427 | 56 | 81 | 13.0 | 18.2 | 0.00 | 0.00 | 0.00 | 62 | 1015.4 |
| 20260510115327 | 56 | 85 | 13.0 | 17.4 | 0.00 | 0.00 | 0.00 | 62 | 1015.3 |
| 20260510115229 | 57 | 83 | 13.9 | 17.4 | 0.00 | 0.00 | 0.00 | 61 | 1015.4 |
| 20260510115057 | 57 | 78 | 13.0 | 18.2 | 0.00 | 0.00 | 0.00 | 61 | 1015.4 |
| 20260510114957 | 57 | 84 | 12.2 | 18.2 | 0.00 | 0.00 | 0.00 | 62 | 1015.4 |
| 20260510114857 | 57 | 75 | 11.3 | 17.4 | 0.00 | 0.00 | 0.00 | 62 | 1015.4 |
| 20260510114727 | 57 | 77 | 11.3 | 17.4 | 0.00 | 0.00 | 0.00 | 62 | 1015.4 |
| 20260510114627 | 56 | 91 | 12.2 | 17.4 | 0.00 | 0.00 | 0.00 | 62 | 1015.4 |
| 20260510114457 | 56 | 79 | 11.3 | 15.6 | 0.00 | 0.00 | 0.00 | 62 | 1015.5 |
| 20260510114358 | 56 | 81 | 13.9 | 15.6 | 0.00 | 0.00 | 0.00 | 61 | 1015.4 |
| 20260510114258 | 57 | 77 | 13.9 | 19.1 | 0.00 | 0.00 | 0.00 | 61 | 1015.5 |
| 20260510114127 | 57 | 78 | 11.3 | 17.4 | 0.00 | 0.00 | 0.00 | 62 | 1015.5 |
| 20260510114027 | 57 | 77 | 10.4 | 13.9 | 0.00 | 0.00 | 0.00 | 62 | 1015.5 |
| 20260510113857 | 56 | 76 | 13.0 | 18.2 | 0.00 | 0.00 | 0.00 | 62 | 1015.5 |
| 20260510113757 | 56 | 83 | 11.3 | 15.6 | 0.00 | 0.00 | 0.00 | 62 | 1015.5 |
| 20260510113657 | 56 | 76 | 12.2 | 14.8 | 0.00 | 0.00 | 0.00 | 61 | 1015.5 |
| 20260510113557 | 56 | 89 | 13.9 | 17.4 | 0.00 | 0.00 | 0.00 | 61 | 1015.5 |
| 20260510113457 | 57 | 87 | 14.8 | 18.2 | 0.00 | 0.00 | 0.00 | 60 | 1015.5 |
| 20260510113357 | 57 | 79 | 13.0 | 18.2 | 0.00 | 0.00 | 0.00 | 61 | 1015.5 |
| 20260510113257 | 57 | 73 | 12.2 | 17.4 | 0.00 | 0.00 | 0.00 | 61 | 1015.5 |
| 20260510113127 | 57 | 87 | 12.2 | 15.6 | 0.00 | 0.00 | 0.00 | 61 | 1015.5 |
| 20260510112957 | 57 | 76 | 10.4 | 20.0 | 0.00 | 0.00 | 0.00 | 61 | 1015.5 |
| 20260510112857 | 57 | 67 | 13.0 | 15.6 | 0.00 | 0.00 | 0.00 | 60 | 1015.5 |
| 20260510112757 | 57 | 83 | 13.9 | 17.4 | 0.00 | 0.00 | 0.00 | 61 | 1015.5 |
| 20260510112627 | 57 | 72 | 13.0 | 18.2 | 0.00 | 0.00 | 0.00 | 61 | 1015.5 |
| 20260510112527 | 57 | 79 | 11.3 | 14.8 | 0.00 | 0.00 | 0.00 | 60 | 1015.5 |
| 20260510112357 | 57 | 64 | 11.3 | 15.6 | 0.00 | 0.00 | 0.00 | 60 | 1015.5 |
| 20260510112257 | 57 | 60 | 13.9 | 15.6 | 0.00 | 0.00 | 0.00 | 59 | 1015.5 |
| 20260510112127 | 57 | 62 | 14.8 | 18.2 | 0.00 | 0.00 | 0.00 | 58 | 1015.5 |
| 20260510112027 | 58 | 66 | 14.8 | 18.2 | 0.00 | 0.00 | 0.00 | 59 | 1015.6 |
| 20260510111857 | 58 | 71 | 12.2 | 14.8 | 0.00 | 0.00 | 0.00 | 60 | 1015.6 |
| 20260510111757 | 58 | 75 | 12.2 | 14.8 | 0.00 | 0.00 | 0.00 | 61 | 1015.5 |
| 20260510111627 | 57 | 66 | 14.8 | 18.2 | 0.00 | 0.00 | 0.00 | 60 | 1015.6 |
| 20260510111527 | 57 | 59 | 13.0 | 18.2 | 0.00 | 0.00 | 0.00 | 61 | 1015.6 |
| 20260510111357 | 57 | 60 | 13.0 | 18.2 | 0.00 | 0.00 | 0.00 | 61 | 1015.6 |
| 20260510111257 | 57 | 69 | 13.0 | 18.2 | 0.00 | 0.00 | 0.00 | 61 | 1015.6 |
| 20260510111127 | 57 | 71 | 11.3 | 18.2 | 0.00 | 0.00 | 0.00 | 62 | 1015.6 |
| 20260510111027 | 57 | 70 | 8.7 | 13.9 | 0.00 | 0.00 | 0.00 | 63 | 1015.6 |
| 20260510110927 | 57 | 69 | 11.3 | 12.2 | 0.00 | 0.00 | 0.00 | 62 | 1015.6 |
| 20260510110827 | 57 | 61 | 15.6 | 17.4 | 0.00 | 0.00 | 0.00 | 62 | 1015.7 |
| 20260510110727 | 57 | 63 | 14.8 | 20.9 | 0.00 | 0.00 | 0.00 | 61 | 1015.6 |
| 20260510110557 | 57 | 69 | 13.0 | 18.2 | 0.00 | 0.00 | 0.00 | 62 | 1015.7 |
| 20260510110427 | 57 | 58 | 12.2 | 17.4 | 0.00 | 0.00 | 0.00 | 61 | 1015.7 |
| 20260510110327 | 57 | 67 | 14.8 | 20.9 | 0.00 | 0.00 | 0.00 | 62 | 1015.7 |
| 20260510110227 | 57 | 65 | 13.9 | 19.1 | 0.00 | 0.00 | 0.00 | 62 | 1015.7 |
| 20260510110057 | 57 | 66 | 13.0 | 19.1 | 0.00 | 0.00 | 0.00 | 62 | 1015.7 |
| 20260510105957 | 57 | 61 | 13.0 | 17.4 | 0.00 | 0.00 | 0.00 | 62 | 1015.7 |
| 20260510105857 | 56 | 55 | 13.0 | 17.4 | 0.00 | 0.00 | 0.00 | 63 | 1015.7 |
| 20260510105757 | 57 | 66 | 14.8 | 17.4 | 0.00 | 0.00 | 0.00 | 61 | 1015.7 |
| 20260510105657 | 57 | 51 | 15.6 | 20.9 | 0.00 | 0.00 | 0.00 | 62 | 1015.7 |
| 20260510105527 | 57 | 54 | 12.2 | 19.1 | 0.00 | 0.00 | 0.00 | 62 | 1015.7 |
| 20260510105427 | 57 | 52 | 12.2 | 13.9 | 0.00 | 0.00 | 0.00 | 62 | 1015.7 |
| 20260510105257 | 57 | 64 | 11.3 | 15.6 | 0.00 | 0.00 | 0.00 | 62 | 1015.7 |
| 20260510105157 | 57 | 52 | 13.0 | 14.8 | 0.00 | 0.00 | 0.00 | 62 | 1015.7 |
| 20260510105057 | 57 | 61 | 13.0 | 20.0 | 0.00 | 0.00 | 0.00 | 61 | 1015.7 |
| 20260510104957 | 57 | 54 | 13.9 | 17.4 | 0.00 | 0.00 | 0.00 | 61 | 1015.7 |
| 20260510104857 | 57 | 56 | 14.8 | 19.1 | 0.00 | 0.00 | 0.00 | 61 | 1015.7 |
| 20260510104757 | 57 | 52 | 12.2 | 20.0 | 0.00 | 0.00 | 0.00 | 62 | 1015.7 |
| 20260510104657 | 57 | 61 | 13.0 | 13.9 | 0.00 | 0.00 | 0.00 | 61 | 1015.7 |
| 20260510104557 | 57 | 53 | 13.9 | 18.2 | 0.00 | 0.00 | 0.00 | 62 | 1015.7 |
| 20260510104427 | 57 | 47 | 14.8 | 17.4 | 0.00 | 0.00 | 0.00 | 61 | 1015.7 |
| 20260510104257 | 57 | 66 | 13.9 | 18.2 | 0.00 | 0.00 | 0.00 | 63 | 1015.7 |
| 20260510104127 | 56 | 58 | 14.8 | 19.1 | 0.00 | 0.00 | 0.00 | 62 | 1015.7 |
| 20260510103957 | 56 | 62 | 14.8 | 19.1 | 0.00 | 0.00 | 0.00 | 62 | 1015.7 |
| 20260510103857 | 56 | 52 | 13.0 | 19.1 | 0.00 | 0.00 | 0.00 | 63 | 1015.8 |
| 20260510103727 | 56 | 64 | 13.9 | 20.9 | 0.00 | 0.00 | 0.00 | 63 | 1015.8 |
| 20260510103627 | 56 | 59 | 15.6 | 19.1 | 0.00 | 0.00 | 0.00 | 62 | 1015.8 |
| 20260510103527 | 56 | 58 | 14.8 | 21.7 | 0.00 | 0.00 | 0.00 | 63 | 1015.8 |
| 20260510103427 | 56 | 55 | 13.9 | 15.6 | 0.00 | 0.00 | 0.00 | 62 | 1015.8 |
| 20260510103257 | 56 | 49 | 13.0 | 19.1 | 0.00 | 0.00 | 0.00 | 63 | 1015.8 |
| 20260510103157 | 56 | 47 | 13.0 | 17.4 | 0.00 | 0.00 | 0.00 | 63 | 1015.8 |
| 20260510103057 | 56 | 52 | 14.8 | 15.6 | 0.00 | 0.00 | 0.00 | 62 | 1015.7 |
| 20260510102957 | 56 | 63 | 15.6 | 21.7 | 0.00 | 0.00 | 0.00 | 63 | 1015.7 |
| 20260510102857 | 56 | 67 | 14.8 | 20.0 | 0.00 | 0.00 | 0.00 | 63 | 1015.8 |
| 20260510102727 | 56 | 60 | 15.6 | 22.6 | 0.00 | 0.00 | 0.00 | 62 | 1015.8 |
| 20260510102557 | 56 | 60 | 15.6 | 20.0 | 0.00 | 0.00 | 0.00 | 62 | 1015.8 |
| 20260510102427 | 56 | 66 | 15.6 | 22.6 | 0.00 | 0.00 | 0.00 | 63 | 1015.7 |
| 20260510102327 | 56 | 65 | 13.9 | 22.6 | 0.00 | 0.00 | 0.00 | 64 | 1015.7 |
| 20260510102227 | 56 | 67 | 14.8 | 20.0 | 0.00 | 0.00 | 0.00 | 63 | 1015.7 |
| 20260510102057 | 56 | 58 | 12.2 | 22.6 | 0.00 | 0.00 | 0.00 | 64 | 1015.7 |
| 20260510101957 | 56 | 60 | 13.9 | 13.9 | 0.00 | 0.00 | 0.00 | 63 | 1015.7 |
| 20260510101857 | 56 | 61 | 14.8 | 22.6 | 0.00 | 0.00 | 0.00 | 64 | 1015.7 |
| 20260510101727 | 56 | 54 | 13.0 | 19.1 | 0.00 | 0.00 | 0.00 | 65 | 1015.7 |
| 20260510101627 | 56 | 53 | 12.2 | 14.8 | 0.00 | 0.00 | 0.00 | 65 | 1015.7 |
| 20260510101527 | 56 | 48 | 13.0 | 14.8 | 0.00 | 0.00 | 0.00 | 65 | 1015.7 |
| 20260510101427 | 55 | 54 | 13.0 | 20.0 | 0.00 | 0.00 | 0.00 | 66 | 1015.7 |
| 20260510101327 | 55 | 50 | 13.9 | 18.2 | 0.00 | 0.00 | 0.00 | 65 | 1015.7 |
| 20260510101157 | 55 | 54 | 18.2 | 20.9 | 0.00 | 0.00 | 0.00 | 65 | 1015.7 |
| 20260510101027 | 55 | 57 | 17.4 | 22.6 | 0.00 | 0.00 | 0.00 | 66 | 1015.7 |
| 20260510100927 | 55 | 57 | 14.8 | 21.7 | 0.00 | 0.00 | 0.00 | 66 | 1015.7 |
| 20260510100827 | 55 | 63 | 13.9 | 22.6 | 0.00 | 0.00 | 0.00 | 66 | 1015.7 |
| 20260510100727 | 55 | 65 | 18.2 | 20.0 | 0.00 | 0.00 | 0.00 | 66 | 1015.7 |
| 20260510100557 | 55 | 59 | 13.9 | 15.6 | 0.00 | 0.00 | 0.00 | 67 | 1015.7 |
| 20260510100457 | 55 | 58 | 17.4 | 21.7 | 0.00 | 0.00 | 0.00 | 67 | 1015.8 |
| 20260510100327 | 55 | 55 | 18.2 | 20.9 | 0.00 | 0.00 | 0.00 | 67 | 1015.8 |
| 20260510100227 | 55 | 62 | 15.6 | 25.2 | 0.00 | 0.00 | 0.00 | 67 | 1015.8 |
| 20260510100057 | 55 | 58 | 14.8 | 19.1 | 0.00 | 0.00 | 0.00 | 68 | 1015.8 |
| 20260510095957 | 55 | 47 | 13.9 | 17.4 | 0.00 | 0.00 | 0.00 | 67 | 1015.8 |
| 20260510095857 | 55 | 56 | 15.6 | 20.9 | 0.00 | 0.00 | 0.00 | 67 | 1015.8 |
| 20260510095757 | 55 | 59 | 14.8 | 21.7 | 0.00 | 0.00 | 0.00 | 67 | 1015.8 |
| 20260510095627 | 55 | 49 | 17.4 | 20.9 | 0.00 | 0.00 | 0.00 | 67 | 1015.8 |
| 20260510095527 | 55 | 52 | 19.1 | 22.6 | 0.00 | 0.00 | 0.00 | 66 | 1015.9 |
| 20260510095357 | 55 | 53 | 17.4 | 24.3 | 0.00 | 0.00 | 0.00 | 66 | 1015.9 |
| 20260510095257 | 55 | 56 | 18.2 | 20.9 | 0.00 | 0.00 | 0.00 | 66 | 1015.9 |
| 20260510095157 | 55 | 49 | 15.6 | 20.9 | 0.00 | 0.00 | 0.00 | 66 | 1015.9 |
| 20260510095057 | 55 | 54 | 15.6 | 18.2 | 0.00 | 0.00 | 0.00 | 66 | 1015.9 |
| 20260510094957 | 55 | 60 | 17.4 | 20.9 | 0.00 | 0.00 | 0.00 | 66 | 1015.9 |
| 20260510094857 | 55 | 60 | 17.4 | 22.6 | 0.00 | 0.00 | 0.00 | 67 | 1015.9 |
| 20260510094757 | 55 | 52 | 12.2 | 20.9 | 0.00 | 0.00 | 0.00 | 67 | 1015.9 |
| 20260510094657 | 55 | 53 | 14.8 | 20.9 | 0.00 | 0.00 | 0.00 | 66 | 1015.9 |
| 20260510094527 | 55 | 52 | 13.9 | 17.4 | 0.00 | 0.00 | 0.00 | 66 | 1015.8 |
| 20260510094357 | 55 | 58 | 14.8 | 17.4 | 0.00 | 0.00 | 0.00 | 67 | 1015.9 |
| 20260510094257 | 55 | 57 | 15.6 | 19.1 | 0.00 | 0.00 | 0.00 | 66 | 1016.0 |
| 20260510094157 | 55 | 52 | 15.6 | 20.0 | 0.00 | 0.00 | 0.00 | 66 | 1016.0 |
| 20260510094057 | 55 | 55 | 14.8 | 20.9 | 0.00 | 0.00 | 0.00 | 66 | 1016.0 |
| 20260510093957 | 55 | 55 | 14.8 | 19.1 | 0.00 | 0.00 | 0.00 | 66 | 1015.9 |
| 20260510093827 | 55 | 58 | 17.4 | 21.7 | 0.00 | 0.00 | 0.00 | 66 | 1016.0 |
| 20260510093727 | 55 | 52 | 15.6 | 21.7 | 0.00 | 0.00 | 0.00 | 67 | 1016.0 |
| 20260510093627 | 55 | 61 | 13.0 | 17.4 | 0.00 | 0.00 | 0.00 | 68 | 1016.0 |
| 20260510093527 | 54 | 58 | 13.9 | 17.4 | 0.00 | 0.00 | 0.00 | 67 | 1016.0 |
| 20260510093427 | 54 | 55 | 15.6 | 20.9 | 0.00 | 0.00 | 0.00 | 67 | 1016.0 |
| 20260510093326 | 54 | 48 | 14.8 | 20.9 | 0.00 | 0.00 | 0.00 | 67 | 1016.0 |
| 20260510093227 | 54 | 55 | 17.4 | 20.9 | 0.00 | 0.00 | 0.00 | 67 | 1016.0 |
| 20260510093126 | 54 | 56 | 14.8 | 22.6 | 0.00 | 0.00 | 0.00 | 68 | 1016.0 |
| 20260510092956 | 54 | 55 | 13.9 | 18.2 | 0.00 | 0.00 | 0.00 | 67 | 1015.9 |
| 20260510092856 | 54 | 56 | 14.8 | 17.4 | 0.00 | 0.00 | 0.00 | 67 | 1015.9 |
| 20260510092756 | 54 | 54 | 15.6 | 19.1 | 0.00 | 0.00 | 0.00 | 67 | 1016.0 |
| 20260510092656 | 54 | 57 | 15.6 | 20.9 | 0.00 | 0.00 | 0.00 | 67 | 1016.0 |
| 20260510092556 | 54 | 58 | 13.9 | 20.9 | 0.00 | 0.00 | 0.00 | 68 | 1015.9 |
| 20260510092456 | 54 | 65 | 13.9 | 20.0 | 0.00 | 0.00 | 0.00 | 68 | 1015.9 |
| 20260510092356 | 54 | 58 | 13.0 | 17.4 | 0.00 | 0.00 | 0.00 | 68 | 1016.0 |
| 20260510092256 | 54 | 58 | 13.0 | 14.8 | 0.00 | 0.00 | 0.00 | 68 | 1016.0 |
| 20260510092156 | 54 | 53 | 13.0 | 17.4 | 0.00 | 0.00 | 0.00 | 69 | 1016.0 |
| 20260510092056 | 54 | 57 | 13.9 | 14.8 | 0.00 | 0.00 | 0.00 | 68 | 1016.0 |
| 20260510091956 | 54 | 59 | 15.6 | 22.6 | 0.00 | 0.00 | 0.00 | 68 | 1016.0 |
| 20260510091856 | 54 | 59 | 15.6 | 22.6 | 0.00 | 0.00 | 0.00 | 68 | 1016.0 |
| 20260510091756 | 54 | 56 | 19.1 | 20.9 | 0.00 | 0.00 | 0.00 | 68 | 1016.0 |
| 20260510091656 | 54 | 54 | 17.4 | 22.6 | 0.00 | 0.00 | 0.00 | 68 | 1016.0 |
| 20260510091556 | 54 | 58 | 18.2 | 20.9 | 0.00 | 0.00 | 0.00 | 69 | 1016.0 |
| 20260510091456 | 54 | 53 | 18.2 | 22.6 | 0.00 | 0.00 | 0.00 | 68 | 1016.0 |
| 20260510091356 | 54 | 52 | 17.4 | 22.6 | 0.00 | 0.00 | 0.00 | 68 | 1016.1 |
| 20260510091255 | 54 | 54 | 17.4 | 24.3 | 0.00 | 0.00 | 0.00 | 68 | 1016.0 |
| 20260510091155 | 54 | 45 | 15.6 | 21.7 | 0.00 | 0.00 | 0.00 | 69 | 1016.1 |
| 20260510091055 | 54 | 61 | 13.9 | 20.0 | 0.00 | 0.00 | 0.00 | 69 | 1016.1 |
| 20260510090955 | 54 | 52 | 13.9 | 17.4 | 0.00 | 0.00 | 0.00 | 69 | 1016.1 |
| 20260510090855 | 54 | 51 | 14.8 | 17.4 | 0.00 | 0.00 | 0.00 | 69 | 1016.1 |
| 20260510090755 | 53 | 54 | 14.8 | 17.4 | 0.00 | 0.00 | 0.00 | 68 | 1016.1 |
| 20260510090655 | 53 | 53 | 15.6 | 20.0 | 0.00 | 0.00 | 0.00 | 68 | 1016.0 |
| 20260510090555 | 53 | 56 | 14.8 | 18.2 | 0.00 | 0.00 | 0.00 | 69 | 1016.1 |
| 20260510090455 | 53 | 52 | 13.9 | 18.2 | 0.00 | 0.00 | 0.00 | 69 | 1016.0 |
| 20260510090355 | 53 | 63 | 14.8 | 17.4 | 0.00 | 0.00 | 0.00 | 69 | 1016.0 |
| 20260510090255 | 53 | 56 | 17.4 | 21.7 | 0.00 | 0.00 | 0.00 | 68 | 1016.1 |
| 20260510090155 | 53 | 64 | 13.9 | 19.1 | 0.00 | 0.00 | 0.00 | 69 | 1016.1 |
| 20260510090055 | 53 | 58 | 15.6 | 20.9 | 0.00 | 0.00 | 0.00 | 68 | 1016.1 |
| 20260510085955 | 53 | 54 | 14.8 | 20.9 | 0.00 | 0.00 | 0.00 | 69 | 1016.1 |
| 20260510085855 | 53 | 57 | 14.8 | 18.2 | 0.00 | 0.00 | 0.00 | 69 | 1016.1 |
| 20260510085754 | 53 | 58 | 13.9 | 20.0 | 0.00 | 0.00 | 0.00 | 69 | 1016.1 |
| 20260510085654 | 53 | 49 | 15.6 | 20.0 | 0.00 | 0.00 | 0.00 | 69 | 1016.1 |
| 20260510085554 | 53 | 53 | 12.2 | 21.7 | 0.00 | 0.00 | 0.00 | 69 | 1016.1 |
| 20260510085454 | 53 | 56 | 14.8 | 14.8 | 0.00 | 0.00 | 0.00 | 69 | 1016.1 |
| 20260510085354 | 53 | 50 | 17.4 | 24.3 | 0.00 | 0.00 | 0.00 | 69 | 1016.1 |
| 20260510085254 | 53 | 58 | 15.6 | 19.1 | 0.00 | 0.00 | 0.00 | 68 | 1016.1 |
| 20260510085154 | 53 | 51 | 13.9 | 22.6 | 0.00 | 0.00 | 0.00 | 69 | 1016.1 |
| 20260510085054 | 53 | 60 | 14.8 | 18.2 | 0.00 | 0.00 | 0.00 | 68 | 1016.2 |
| 20260510084954 | 53 | 57 | 14.8 | 22.6 | 0.00 | 0.00 | 0.00 | 69 | 1016.2 |
| 20260510084854 | 53 | 57 | 13.0 | 20.0 | 0.00 | 0.00 | 0.00 | 69 | 1016.1 |
| 20260510084754 | 53 | 59 | 14.8 | 15.6 | 0.00 | 0.00 | 0.00 | 69 | 1016.2 |
| 20260510084654 | 53 | 63 | 17.4 | 21.7 | 0.00 | 0.00 | 0.00 | 68 | 1016.2 |
| 20260510084554 | 53 | 60 | 18.2 | 22.6 | 0.00 | 0.00 | 0.00 | 68 | 1016.1 |
| 20260510084453 | 53 | 61 | 17.4 | 25.2 | 0.00 | 0.00 | 0.00 | 69 | 1016.1 |
| 20260510084354 | 53 | 58 | 13.9 | 20.9 | 0.00 | 0.00 | 0.00 | 69 | 1016.1 |
| 20260510084253 | 53 | 62 | 13.9 | 20.0 | 0.00 | 0.00 | 0.00 | 68 | 1016.1 |
| 20260510084153 | 53 | 60 | 14.8 | 22.6 | 0.00 | 0.00 | 0.00 | 69 | 1016.1 |
| 20260510084053 | 53 | 66 | 14.8 | 20.9 | 0.00 | 0.00 | 0.00 | 69 | 1016.1 |
| 20260510083953 | 53 | 64 | 13.9 | 17.4 | 0.00 | 0.00 | 0.00 | 68 | 1016.1 |
| 20260510083853 | 53 | 66 | 14.8 | 20.9 | 0.00 | 0.00 | 0.00 | 69 | 1016.1 |
| 20260510083753 | 53 | 64 | 15.6 | 20.9 | 0.00 | 0.00 | 0.00 | 69 | 1016.1 |
| 20260510083653 | 53 | 65 | 13.9 | 20.9 | 0.00 | 0.00 | 0.00 | 70 | 1016.1 |
| 20260510083553 | 53 | 64 | 14.8 | 18.2 | 0.00 | 0.00 | 0.00 | 69 | 1016.1 |
| 20260510083453 | 53 | 55 | 13.9 | 20.0 | 0.00 | 0.00 | 0.00 | 70 | 1016.1 |
| 20260510083353 | 53 | 61 | 12.2 | 17.4 | 0.00 | 0.00 | 0.00 | 70 | 1016.1 |
| 20260510083253 | 53 | 54 | 12.2 | 15.6 | 0.00 | 0.00 | 0.00 | 70 | 1016.2 |
| 20260510083153 | 53 | 55 | 11.3 | 13.9 | 0.00 | 0.00 | 0.00 | 70 | 1016.1 |
| 20260510083053 | 53 | 59 | 13.9 | 15.6 | 0.00 | 0.00 | 0.00 | 69 | 1016.2 |
| 20260510082952 | 53 | 62 | 12.2 | 18.2 | 0.00 | 0.00 | 0.00 | 70 | 1016.2 |
| 20260510082852 | 53 | 54 | 11.3 | 14.8 | 0.00 | 0.00 | 0.00 | 70 | 1016.2 |
| 20260510082752 | 53 | 53 | 13.0 | 15.6 | 0.00 | 0.00 | 0.00 | 70 | 1016.2 |
| 20260510082652 | 53 | 54 | 13.0 | 17.4 | 0.00 | 0.00 | 0.00 | 70 | 1016.2 |
| 20260510082552 | 53 | 57 | 12.2 | 14.8 | 0.00 | 0.00 | 0.00 | 69 | 1016.2 |
| 20260510082452 | 53 | 56 | 13.0 | 19.1 | 0.00 | 0.00 | 0.00 | 69 | 1016.2 |
| 20260510082352 | 53 | 53 | 12.2 | 17.4 | 0.00 | 0.00 | 0.00 | 69 | 1016.2 |
| 20260510082252 | 53 | 52 | 14.8 | 17.4 | 0.00 | 0.00 | 0.00 | 68 | 1016.2 |
| 20260510082152 | 53 | 60 | 17.4 | 21.7 | 0.00 | 0.00 | 0.00 | 68 | 1016.2 |
| 20260510082052 | 53 | 62 | 13.9 | 22.6 | 0.00 | 0.00 | 0.00 | 69 | 1016.2 |
| 20260510081952 | 53 | 60 | 13.9 | 17.4 | 0.00 | 0.00 | 0.00 | 69 | 1016.2 |
| 20260510081852 | 53 | 55 | 14.8 | 17.4 | 0.00 | 0.00 | 0.00 | 69 | 1016.2 |
| 20260510081752 | 53 | 62 | 14.8 | 21.7 | 0.00 | 0.00 | 0.00 | 69 | 1016.1 |
| 20260510081652 | 53 | 65 | 14.8 | 17.4 | 0.00 | 0.00 | 0.00 | 69 | 1016.2 |
| 20260510081552 | 53 | 67 | 15.6 | 20.0 | 0.00 | 0.00 | 0.00 | 68 | 1016.2 |
| 20260510081452 | 53 | 66 | 13.9 | 19.1 | 0.00 | 0.00 | 0.00 | 68 | 1016.2 |
| 20260510081351 | 53 | 64 | 13.0 | 18.2 | 0.00 | 0.00 | 0.00 | 68 | 1016.2 |
| 20260510081251 | 53 | 65 | 14.8 | 18.2 | 0.00 | 0.00 | 0.00 | 68 | 1016.2 |
| 20260510081151 | 53 | 60 | 15.6 | 21.7 | 0.00 | 0.00 | 0.00 | 68 | 1016.2 |
| 20260510081051 | 53 | 65 | 13.0 | 20.0 | 0.00 | 0.00 | 0.00 | 69 | 1016.2 |
| 20260510080951 | 53 | 63 | 14.8 | 19.1 | 0.00 | 0.00 | 0.00 | 68 | 1016.2 |
| 20260510080851 | 53 | 66 | 15.6 | 21.7 | 0.00 | 0.00 | 0.00 | 69 | 1016.2 |
| 20260510080751 | 53 | 64 | 13.0 | 24.3 | 0.00 | 0.00 | 0.00 | 69 | 1016.1 |
| 20260510080651 | 53 | 56 | 12.2 | 14.8 | 0.00 | 0.00 | 0.00 | 69 | 1016.1 |
| 20260510080551 | 53 | 58 | 14.8 | 19.1 | 0.00 | 0.00 | 0.00 | 68 | 1016.1 |
| 20260510080451 | 53 | 70 | 14.8 | 19.1 | 0.00 | 0.00 | 0.00 | 68 | 1016.1 |
| 20260510080351 | 53 | 65 | 15.6 | 20.9 | 0.00 | 0.00 | 0.00 | 68 | 1016.1 |
| 20260510080251 | 53 | 58 | 13.9 | 20.9 | 0.00 | 0.00 | 0.00 | 68 | 1016.1 |
| 20260510080151 | 53 | 64 | 14.8 | 24.3 | 0.00 | 0.00 | 0.00 | 68 | 1016.0 |
| 20260510080051 | 53 | 61 | 14.8 | 22.6 | 0.00 | 0.00 | 0.00 | 68 | 1016.1 |
| 20260510075951 | 53 | 65 | 17.4 | 19.1 | 0.00 | 0.00 | 0.00 | 68 | 1016.1 |
| 20260510075851 | 53 | 67 | 17.4 | 24.3 | 0.00 | 0.00 | 0.00 | 68 | 1016.1 |
| 20260510075750 | 53 | 60 | 18.2 | 22.6 | 0.00 | 0.00 | 0.00 | 69 | 1016.1 |
| 20260510075620 | 53 | 63 | 17.4 | 22.6 | 0.00 | 0.00 | 0.00 | 69 | 1016.1 |
| 20260510075520 | 53 | 67 | 15.6 | 22.6 | 0.00 | 0.00 | 0.00 | 69 | 1016.1 |
| 20260510075420 | 53 | 66 | 15.6 | 22.6 | 0.00 | 0.00 | 0.00 | 69 | 1016.1 |
| 20260510075320 | 53 | 56 | 13.9 | 20.9 | 0.00 | 0.00 | 0.00 | 69 | 1016.1 |
| 20260510075150 | 53 | 65 | 14.8 | 21.7 | 0.00 | 0.00 | 0.00 | 69 | 1016.1 |
| 20260510075050 | 53 | 63 | 14.8 | 21.7 | 0.00 | 0.00 | 0.00 | 70 | 1016.1 |
| 20260510074950 | 53 | 67 | 12.2 | 18.2 | 0.00 | 0.00 | 0.00 | 70 | 1016.1 |
| 20260510074850 | 53 | 57 | 14.8 | 18.2 | 0.00 | 0.00 | 0.00 | 70 | 1016.1 |
| 20260510074750 | 53 | 67 | 19.1 | 22.6 | 0.00 | 0.00 | 0.00 | 70 | 1016.2 |
| 20260510074650 | 53 | 65 | 17.4 | 22.6 | 0.00 | 0.00 | 0.00 | 70 | 1016.2 |
| 20260510074520 | 53 | 74 | 13.9 | 22.6 | 0.00 | 0.00 | 0.00 | 70 | 1016.1 |
| 20260510074420 | 53 | 61 | 13.9 | 17.4 | 0.00 | 0.00 | 0.00 | 70 | 1016.2 |
| 20260510074320 | 53 | 63 | 17.4 | 25.2 | 0.00 | 0.00 | 0.00 | 70 | 1016.2 |
| 20260510074220 | 53 | 65 | 13.9 | 22.6 | 0.00 | 0.00 | 0.00 | 71 | 1016.1 |
| 20260510074120 | 53 | 64 | 12.2 | 17.4 | 0.00 | 0.00 | 0.00 | 72 | 1016.1 |
| 20260510074020 | 53 | 58 | 13.0 | 13.9 | 0.00 | 0.00 | 0.00 | 72 | 1016.1 |
| 20260510073920 | 53 | 54 | 13.9 | 18.2 | 0.00 | 0.00 | 0.00 | 72 | 1016.1 |
| 20260510073820 | 53 | 60 | 13.0 | 20.9 | 0.00 | 0.00 | 0.00 | 73 | 1016.1 |
| 20260510073720 | 52 | 61 | 11.3 | 17.4 | 0.00 | 0.00 | 0.00 | 73 | 1016.1 |
| 20260510073620 | 52 | 66 | 13.9 | 18.2 | 0.00 | 0.00 | 0.00 | 72 | 1016.1 |
| 20260510073520 | 52 | 63 | 14.8 | 19.1 | 0.00 | 0.00 | 0.00 | 73 | 1016.1 |
| 20260510073420 | 52 | 52 | 12.2 | 17.4 | 0.00 | 0.00 | 0.00 | 74 | 1016.1 |
| 20260510073319 | 52 | 65 | 13.0 | 17.4 | 0.00 | 0.00 | 0.00 | 74 | 1016.1 |
| 20260510073219 | 52 | 66 | 14.8 | 17.4 | 0.00 | 0.00 | 0.00 | 74 | 1016.1 |
| 20260510073119 | 51 | 67 | 14.8 | 20.0 | 0.00 | 0.00 | 0.00 | 74 | 1016.1 |
| 20260510073019 | 51 | 64 | 14.8 | 19.1 | 0.00 | 0.00 | 0.00 | 74 | 1016.2 |
| 20260510072919 | 51 | 61 | 13.0 | 18.2 | 0.00 | 0.00 | 0.00 | 74 | 1016.1 |
| 20260510072819 | 51 | 68 | 11.3 | 17.4 | 0.00 | 0.00 | 0.00 | 75 | 1016.2 |
| 20260510072719 | 51 | 60 | 13.0 | 15.6 | 0.00 | 0.00 | 0.00 | 74 | 1016.2 |
| 20260510072619 | 51 | 68 | 13.9 | 15.6 | 0.00 | 0.00 | 0.00 | 74 | 1016.2 |
| 20260510072519 | 51 | 60 | 15.6 | 22.6 | 0.00 | 0.00 | 0.00 | 74 | 1016.2 |
| 20260510072349 | 51 | 63 | 17.4 | 22.6 | 0.00 | 0.00 | 0.00 | 74 | 1016.2 |
| 20260510072249 | 51 | 60 | 13.9 | 20.0 | 0.00 | 0.00 | 0.00 | 74 | 1016.1 |
| 20260510072149 | 51 | 63 | 13.9 | 19.1 | 0.00 | 0.00 | 0.00 | 74 | 1016.1 |
| 20260510072049 | 51 | 59 | 14.8 | 19.1 | 0.00 | 0.00 | 0.00 | 74 | 1016.1 |
| 20260510071948 | 51 | 60 | 13.9 | 22.6 | 0.00 | 0.00 | 0.00 | 75 | 1016.1 |
| 20260510071848 | 51 | 52 | 14.8 | 15.6 | 0.00 | 0.00 | 0.00 | 75 | 1016.1 |
| 20260510071748 | 51 | 57 | 15.6 | 21.7 | 0.00 | 0.00 | 0.00 | 75 | 1016.1 |
| 20260510071648 | 51 | 58 | 13.0 | 19.1 | 0.00 | 0.00 | 0.00 | 75 | 1016.1 |
| 20260510071548 | 51 | 60 | 13.9 | 20.0 | 0.00 | 0.00 | 0.00 | 75 | 1016.1 |
| 20260510071448 | 51 | 63 | 13.9 | 18.2 | 0.00 | 0.00 | 0.00 | 75 | 1016.1 |
| 20260510071348 | 51 | 64 | 14.8 | 19.1 | 0.00 | 0.00 | 0.00 | 75 | 1016.1 |
| 20260510071248 | 51 | 65 | 13.9 | 19.1 | 0.00 | 0.00 | 0.00 | 75 | 1016.1 |
| 20260510071148 | 51 | 58 | 13.9 | 17.4 | 0.00 | 0.00 | 0.00 | 75 | 1016.2 |
| 20260510071048 | 51 | 56 | 14.8 | 20.0 | 0.00 | 0.00 | 0.00 | 75 | 1016.1 |
| 20260510070948 | 51 | 56 | 14.8 | 20.9 | 0.00 | 0.00 | 0.00 | 75 | 1016.1 |
| 20260510070848 | 51 | 52 | 14.8 | 20.0 | 0.00 | 0.00 | 0.00 | 76 | 1016.0 |
| 20260510070748 | 51 | 57 | 13.0 | 20.0 | 0.00 | 0.00 | 0.00 | 76 | 1016.0 |
| 20260510070648 | 51 | 61 | 13.9 | 17.4 | 0.00 | 0.00 | 0.00 | 76 | 1016.1 |
| 20260510070547 | 51 | 57 | 13.0 | 18.2 | 0.00 | 0.00 | 0.00 | 76 | 1016.1 |
| 20260510070447 | 51 | 60 | 12.2 | 17.4 | 0.00 | 0.00 | 0.00 | 77 | 1016.1 |
| 20260510070347 | 51 | 60 | 12.2 | 17.4 | 0.00 | 0.00 | 0.00 | 77 | 1016.1 |
| 20260510070247 | 50 | 63 | 13.0 | 17.4 | 0.00 | 0.00 | 0.00 | 77 | 1016.1 |
| 20260510070147 | 50 | 56 | 13.9 | 17.4 | 0.00 | 0.00 | 0.00 | 77 | 1016.1 |
| 20260510070047 | 50 | 68 | 14.8 | 20.9 | 0.00 | 0.00 | 0.00 | 77 | 1016.1 |
| 20260510065947 | 50 | 62 | 14.8 | 18.2 | 0.00 | 0.00 | 0.00 | 77 | 1016.0 |
| 20260510065847 | 50 | 63 | 17.4 | 20.9 | 0.00 | 0.00 | 0.00 | 77 | 1016.1 |
| 20260510065747 | 50 | 55 | 14.8 | 20.9 | 0.00 | 0.00 | 0.00 | 77 | 1016.1 |
| 20260510065647 | 50 | 58 | 13.9 | 22.6 | 0.00 | 0.00 | 0.00 | 77 | 1016.0 |
| 20260510065547 | 50 | 61 | 15.6 | 22.6 | 0.00 | 0.00 | 0.00 | 78 | 1016.0 |
| 20260510065447 | 50 | 56 | 13.9 | 20.0 | 0.00 | 0.00 | 0.00 | 78 | 1016.0 |
| 20260510065347 | 50 | 59 | 12.2 | 18.2 | 0.00 | 0.00 | 0.00 | 78 | 1016.0 |
| 20260510065247 | 50 | 52 | 10.4 | 13.9 | 0.00 | 0.00 | 0.00 | 78 | 1016.0 |
| 20260510065146 | 50 | 59 | 13.9 | 18.2 | 0.00 | 0.00 | 0.00 | 78 | 1016.0 |
| 20260510065046 | 50 | 59 | 13.0 | 21.7 | 0.00 | 0.00 | 0.00 | 78 | 1016.0 |
| 20260510064946 | 50 | 63 | 15.6 | 20.9 | 0.00 | 0.00 | 0.00 | 78 | 1016.0 |
| 20260510064846 | 50 | 56 | 13.9 | 21.7 | 0.00 | 0.00 | 0.00 | 78 | 1015.9 |
| 20260510064746 | 50 | 58 | 15.6 | 19.1 | 0.00 | 0.00 | 0.00 | 78 | 1016.0 |
| 20260510064646 | 50 | 58 | 13.0 | 21.7 | 0.00 | 0.00 | 0.00 | 79 | 1015.9 |
| 20260510064546 | 49 | 51 | 14.8 | 21.7 | 0.00 | 0.00 | 0.00 | 78 | 1015.9 |
| 20260510064446 | 49 | 62 | 13.9 | 21.7 | 0.00 | 0.00 | 0.00 | 79 | 1015.9 |
| 20260510064346 | 49 | 57 | 14.8 | 15.6 | 0.00 | 0.00 | 0.00 | 79 | 1015.9 |
| 20260510064246 | 49 | 65 | 17.4 | 24.3 | 0.00 | 0.00 | 0.00 | 78 | 1015.9 |
| 20260510064146 | 49 | 62 | 15.6 | 22.6 | 0.00 | 0.00 | 0.00 | 79 | 1015.9 |
| 20260510064045 | 49 | 58 | 14.8 | 24.3 | 0.00 | 0.00 | 0.00 | 79 | 1015.9 |
| 20260510063915 | 49 | 61 | 13.9 | 20.0 | 0.00 | 0.00 | 0.00 | 79 | 1015.9 |
| 20260510063815 | 49 | 53 | 15.6 | 18.2 | 0.00 | 0.00 | 0.00 | 79 | 1015.9 |
| 20260510063716 | 49 | 65 | 17.4 | 22.6 | 0.00 | 0.00 | 0.00 | 79 | 1015.9 |
| 20260510063615 | 49 | 56 | 15.6 | 22.6 | 0.00 | 0.00 | 0.00 | 80 | 1016.0 |
| 20260510063515 | 49 | 58 | 13.9 | 19.1 | 0.00 | 0.00 | 0.00 | 80 | 1015.9 |
| 20260510063415 | 49 | 58 | 13.9 | 19.1 | 0.00 | 0.00 | 0.00 | 80 | 1015.9 |
| 20260510063315 | 49 | 55 | 17.4 | 18.2 | 0.00 | 0.00 | 0.00 | 79 | 1015.9 |
| 20260510063215 | 49 | 52 | 17.4 | 24.3 | 0.00 | 0.00 | 0.00 | 80 | 1015.9 |
| 20260510063115 | 49 | 58 | 14.8 | 20.0 | 0.00 | 0.00 | 0.00 | 80 | 1015.9 |
| 20260510063015 | 49 | 53 | 14.8 | 20.0 | 0.00 | 0.00 | 0.00 | 80 | 1015.9 |
| 20260510062915 | 49 | 58 | 15.6 | 20.9 | 0.00 | 0.00 | 0.00 | 80 | 1015.9 |
| 20260510062815 | 49 | 59 | 13.9 | 17.4 | 0.00 | 0.00 | 0.00 | 80 | 1015.8 |
| 20260510062715 | 49 | 60 | 13.9 | 18.2 | 0.00 | 0.00 | 0.00 | 80 | 1015.9 |
| 20260510062614 | 48 | 55 | 15.6 | 20.9 | 0.00 | 0.00 | 0.00 | 80 | 1015.9 |
| 20260510062514 | 48 | 60 | 15.6 | 21.7 | 0.00 | 0.00 | 0.00 | 80 | 1015.8 |
| 20260510062414 | 48 | 56 | 17.4 | 20.9 | 0.00 | 0.00 | 0.00 | 80 | 1015.8 |
| 20260510062314 | 48 | 56 | 17.4 | 22.6 | 0.00 | 0.00 | 0.00 | 80 | 1015.8 |
| 20260510062214 | 48 | 58 | 15.6 | 20.0 | 0.00 | 0.00 | 0.00 | 80 | 1015.7 |
| 20260510062114 | 48 | 59 | 14.8 | 20.0 | 0.00 | 0.00 | 0.00 | 80 | 1015.7 |
| 20260510062014 | 48 | 50 | 14.8 | 21.7 | 0.00 | 0.00 | 0.00 | 80 | 1015.8 |
| 20260510061914 | 48 | 59 | 15.6 | 18.2 | 0.00 | 0.00 | 0.00 | 80 | 1015.7 |
| 20260510061814 | 48 | 60 | 15.6 | 21.7 | 0.00 | 0.00 | 0.00 | 81 | 1015.7 |
| 20260510061714 | 48 | 54 | 14.8 | 19.1 | 0.00 | 0.00 | 0.00 | 81 | 1015.7 |
| 20260510061614 | 48 | 51 | 13.0 | 18.2 | 0.00 | 0.00 | 0.00 | 81 | 1015.7 |
| 20260510061514 | 48 | 56 | 17.4 | 22.6 | 0.00 | 0.00 | 0.00 | 81 | 1015.7 |
| 20260510061414 | 48 | 56 | 15.6 | 21.7 | 0.00 | 0.00 | 0.00 | 81 | 1015.6 |
| 20260510061314 | 48 | 52 | 15.6 | 21.7 | 0.00 | 0.00 | 0.00 | 81 | 1015.7 |
| 20260510061213 | 48 | 58 | 17.4 | 22.6 | 0.00 | 0.00 | 0.00 | 81 | 1015.7 |
| 20260510061113 | 48 | 53 | 14.8 | 20.9 | 0.00 | 0.00 | 0.00 | 81 | 1015.7 |
| 20260510061013 | 48 | 58 | 15.6 | 20.9 | 0.00 | 0.00 | 0.00 | 81 | 1015.7 |
| 20260510060913 | 48 | 61 | 17.4 | 22.6 | 0.00 | 0.00 | 0.00 | 81 | 1015.7 |
| 20260510060813 | 48 | 55 | 15.6 | 20.9 | 0.00 | 0.00 | 0.00 | 81 | 1015.7 |
| 20260510060713 | 48 | 62 | 19.1 | 22.6 | 0.00 | 0.00 | 0.00 | 81 | 1015.7 |
| 20260510060613 | 48 | 58 | 17.4 | 22.6 | 0.00 | 0.00 | 0.00 | 81 | 1015.7 |
| 20260510060513 | 48 | 62 | 14.8 | 18.2 | 0.00 | 0.00 | 0.00 | 81 | 1015.7 |
| 20260510060413 | 48 | 54 | 14.8 | 18.2 | 0.00 | 0.00 | 0.00 | 81 | 1015.7 |
| 20260510060313 | 48 | 61 | 17.4 | 20.0 | 0.00 | 0.00 | 0.00 | 81 | 1015.8 |
| 20260510060213 | 48 | 55 | 17.4 | 25.2 | 0.00 | 0.00 | 0.00 | 81 | 1015.8 |
| 20260510060113 | 48 | 56 | 15.6 | 18.2 | 0.00 | 0.00 | 0.00 | 81 | 1015.8 |
| 20260510060013 | 48 | 58 | 15.6 | 21.7 | 0.00 | 0.00 | 0.00 | 81 | 1015.7 |
| 20260510055913 | 48 | 57 | 13.9 | 20.0 | 0.00 | 0.00 | 0.00 | 81 | 1015.7 |
| 20260510055813 | 48 | 60 | 14.8 | 20.0 | 0.00 | 0.00 | 0.00 | 81 | 1015.7 |
| 20260510055713 | 48 | 60 | 14.8 | 18.2 | 0.00 | 0.00 | 0.00 | 81 | 1015.7 |
| 20260510055612 | 48 | 60 | 14.8 | 21.7 | 0.00 | 0.00 | 0.00 | 81 | 1015.7 |
| 20260510055512 | 48 | 56 | 17.4 | 21.7 | 0.00 | 0.00 | 0.00 | 81 | 1015.7 |
| 20260510055412 | 48 | 58 | 15.6 | 21.7 | 0.00 | 0.00 | 0.00 | 81 | 1015.7 |
| 20260510055312 | 48 | 60 | 14.8 | 18.2 | 0.00 | 0.00 | 0.00 | 81 | 1015.7 |
| 20260510055212 | 48 | 55 | 15.6 | 19.1 | 0.00 | 0.00 | 0.00 | 80 | 1015.7 |
| 20260510055112 | 48 | 62 | 14.8 | 20.9 | 0.00 | 0.00 | 0.00 | 81 | 1015.7 |
| 20260510055012 | 48 | 53 | 17.4 | 20.0 | 0.00 | 0.00 | 0.00 | 81 | 1015.7 |
| 20260510054912 | 48 | 56 | 19.1 | 24.3 | 0.00 | 0.00 | 0.00 | 80 | 1015.7 |
| 20260510054812 | 48 | 56 | 17.4 | 26.1 | 0.00 | 0.00 | 0.00 | 80 | 1015.7 |
| 20260510054712 | 48 | 56 | 17.4 | 22.6 | 0.00 | 0.00 | 0.00 | 80 | 1015.6 |
| 20260510054612 | 48 | 56 | 15.6 | 21.7 | 0.00 | 0.00 | 0.00 | 80 | 1015.6 |
| 20260510054512 | 48 | 54 | 18.2 | 25.2 | 0.00 | 0.00 | 0.00 | 80 | 1015.6 |
| 20260510054411 | 48 | 55 | 17.4 | 25.2 | 0.00 | 0.00 | 0.00 | 81 | 1015.6 |
| 20260510054311 | 48 | 60 | 17.4 | 21.7 | 0.00 | 0.00 | 0.00 | 80 | 1015.6 |
| 20260510054211 | 48 | 60 | 20.0 | 22.6 | 0.00 | 0.00 | 0.00 | 80 | 1015.6 |
| 20260510054111 | 48 | 56 | 18.2 | 25.2 | 0.00 | 0.00 | 0.00 | 80 | 1015.6 |
| 20260510054011 | 48 | 54 | 15.6 | 22.6 | 0.00 | 0.00 | 0.00 | 80 | 1015.6 |
| 20260510053911 | 48 | 45 | 14.8 | 22.6 | 0.00 | 0.00 | 0.00 | 80 | 1015.6 |
| 20260510053811 | 48 | 56 | 17.4 | 20.0 | 0.00 | 0.00 | 0.00 | 80 | 1015.6 |
| 20260510053711 | 48 | 53 | 17.4 | 20.9 | 0.00 | 0.00 | 0.00 | 80 | 1015.6 |
| 20260510053611 | 48 | 51 | 14.8 | 19.1 | 0.00 | 0.00 | 0.00 | 81 | 1015.6 |
| 20260510053511 | 48 | 52 | 14.8 | 17.4 | 0.00 | 0.00 | 0.00 | 81 | 1015.6 |
| 20260510053410 | 48 | 51 | 14.8 | 17.4 | 0.00 | 0.00 | 0.00 | 81 | 1015.7 |
| 20260510053310 | 48 | 53 | 13.9 | 17.4 | 0.00 | 0.00 | 0.00 | 81 | 1015.7 |
| 20260510053210 | 48 | 52 | 13.0 | 17.4 | 0.00 | 0.00 | 0.00 | 80 | 1015.7 |
| 20260510053110 | 48 | 54 | 14.8 | 21.7 | 0.00 | 0.00 | 0.00 | 80 | 1015.7 |
| 20260510053010 | 48 | 61 | 14.8 | 21.7 | 0.00 | 0.00 | 0.00 | 80 | 1015.7 |
| 20260510052910 | 48 | 48 | 14.8 | 21.7 | 0.00 | 0.00 | 0.00 | 80 | 1015.7 |
| 20260510052810 | 48 | 52 | 13.9 | 20.0 | 0.00 | 0.00 | 0.00 | 80 | 1015.7 |
| 20260510052710 | 48 | 58 | 18.2 | 24.3 | 0.00 | 0.00 | 0.00 | 80 | 1015.7 |
| 20260510052610 | 48 | 53 | 18.2 | 21.7 | 0.00 | 0.00 | 0.00 | 80 | 1015.7 |
| 20260510052510 | 48 | 60 | 18.2 | 21.7 | 0.00 | 0.00 | 0.00 | 80 | 1015.7 |
| 20260510052410 | 48 | 62 | 17.4 | 21.7 | 0.00 | 0.00 | 0.00 | 80 | 1015.7 |
| 20260510052309 | 48 | 54 | 18.2 | 22.6 | 0.00 | 0.00 | 0.00 | 80 | 1015.7 |
| 20260510052209 | 48 | 50 | 17.4 | 21.7 | 0.00 | 0.00 | 0.00 | 80 | 1015.7 |
| 20260510052109 | 48 | 52 | 17.4 | 20.0 | 0.00 | 0.00 | 0.00 | 80 | 1015.7 |
| 20260510052009 | 48 | 54 | 17.4 | 26.1 | 0.00 | 0.00 | 0.00 | 80 | 1015.8 |
| 20260510051909 | 48 | 50 | 15.6 | 20.0 | 0.00 | 0.00 | 0.00 | 80 | 1015.8 |
| 20260510051809 | 48 | 57 | 13.9 | 21.7 | 0.00 | 0.00 | 0.00 | 80 | 1015.8 |
| 20260510051709 | 48 | 55 | 17.4 | 22.6 | 0.00 | 0.00 | 0.00 | 80 | 1015.8 |
| 20260510051609 | 48 | 59 | 15.6 | 22.6 | 0.00 | 0.00 | 0.00 | 80 | 1015.8 |
| 20260510051509 | 48 | 50 | 14.8 | 19.1 | 0.00 | 0.00 | 0.00 | 80 | 1015.8 |
| 20260510051409 | 48 | 53 | 20.0 | 22.6 | 0.00 | 0.00 | 0.00 | 80 | 1015.8 |
| 20260510051309 | 48 | 56 | 18.2 | 26.9 | 0.00 | 0.00 | 0.00 | 80 | 1015.8 |
| 20260510051209 | 48 | 56 | 15.6 | 18.2 | 0.00 | 0.00 | 0.00 | 80 | 1015.8 |
| 20260510051108 | 48 | 55 | 18.2 | 20.0 | 0.00 | 0.00 | 0.00 | 80 | 1015.8 |
| 20260510051008 | 48 | 58 | 18.2 | 24.3 | 0.00 | 0.00 | 0.00 | 80 | 1015.8 |
| 20260510050908 | 48 | 56 | 15.6 | 24.3 | 0.00 | 0.00 | 0.00 | 80 | 1015.7 |
| 20260510050808 | 48 | 50 | 17.4 | 21.7 | 0.00 | 0.00 | 0.00 | 80 | 1015.8 |
| 20260510050708 | 48 | 50 | 15.6 | 21.7 | 0.00 | 0.00 | 0.00 | 80 | 1015.7 |
| 20260510050608 | 48 | 53 | 15.6 | 20.9 | 0.00 | 0.00 | 0.00 | 80 | 1015.8 |
| 20260510050508 | 48 | 48 | 18.2 | 21.7 | 0.00 | 0.00 | 0.00 | 80 | 1015.8 |
| 20260510050408 | 48 | 56 | 15.6 | 20.9 | 0.00 | 0.00 | 0.00 | 80 | 1015.8 |
| 20260510050308 | 48 | 53 | 15.6 | 18.2 | 0.00 | 0.00 | 0.00 | 80 | 1015.8 |
| 20260510050208 | 48 | 54 | 18.2 | 22.6 | 0.00 | 0.00 | 0.00 | 80 | 1015.8 |
| 20260510050108 | 48 | 55 | 14.8 | 21.7 | 0.00 | 0.00 | 0.00 | 80 | 1015.8 |
| 20260510050008 | 48 | 59 | 17.4 | 20.9 | 0.00 | 0.00 | 0.00 | 80 | 1015.8 |
| 20260510045908 | 48 | 52 | 14.8 | 20.0 | 0.00 | 0.00 | 0.00 | 80 | 1015.8 |
| 20260510045808 | 48 | 57 | 15.6 | 18.2 | 0.00 | 0.00 | 0.00 | 80 | 1015.8 |
| 20260510045707 | 48 | 57 | 15.6 | 19.1 | 0.00 | 0.00 | 0.00 | 80 | 1015.8 |
| 20260510045607 | 48 | 50 | 13.9 | 19.1 | 0.00 | 0.00 | 0.00 | 80 | 1015.8 |
| 20260510045507 | 48 | 55 | 15.6 | 17.4 | 0.00 | 0.00 | 0.00 | 80 | 1015.7 |
| 20260510045407 | 48 | 56 | 18.2 | 21.7 | 0.00 | 0.00 | 0.00 | 80 | 1015.7 |
| 20260510045307 | 48 | 55 | 17.4 | 25.2 | 0.00 | 0.00 | 0.00 | 80 | 1015.7 |
| 20260510045207 | 48 | 53 | 14.8 | 20.9 | 0.00 | 0.00 | 0.00 | 79 | 1015.7 |
| 20260510045107 | 48 | 52 | 14.8 | 19.1 | 0.00 | 0.00 | 0.00 | 79 | 1015.7 |
| 20260510045007 | 49 | 51 | 13.9 | 18.2 | 0.00 | 0.00 | 0.00 | 80 | 1015.7 |
| 20260510044907 | 49 | 56 | 17.4 | 19.1 | 0.00 | 0.00 | 0.00 | 80 | 1015.7 |
| 20260510044807 | 48 | 56 | 18.2 | 22.6 | 0.00 | 0.00 | 0.00 | 80 | 1015.6 |
| 20260510044707 | 49 | 50 | 14.8 | 20.9 | 0.00 | 0.00 | 0.00 | 80 | 1015.6 |
| 20260510044607 | 49 | 57 | 14.8 | 19.1 | 0.00 | 0.00 | 0.00 | 80 | 1015.6 |
| 20260510044507 | 49 | 58 | 14.8 | 19.1 | 0.00 | 0.00 | 0.00 | 80 | 1015.6 |
| 20260510044406 | 49 | 51 | 14.8 | 17.4 | 0.00 | 0.00 | 0.00 | 79 | 1015.6 |
| 20260510044306 | 49 | 51 | 15.6 | 21.7 | 0.00 | 0.00 | 0.00 | 80 | 1015.5 |
| 20260510044206 | 49 | 51 | 14.8 | 20.9 | 0.00 | 0.00 | 0.00 | 80 | 1015.5 |
| 20260510044106 | 49 | 54 | 17.4 | 20.9 | 0.00 | 0.00 | 0.00 | 80 | 1015.5 |
| 20260510044006 | 49 | 59 | 17.4 | 22.6 | 0.00 | 0.00 | 0.00 | 80 | 1015.5 |
| 20260510043906 | 49 | 50 | 15.6 | 19.1 | 0.00 | 0.00 | 0.00 | 80 | 1015.6 |
| 20260510043806 | 49 | 49 | 17.4 | 20.0 | 0.00 | 0.00 | 0.00 | 79 | 1015.6 |
| 20260510043706 | 49 | 52 | 17.4 | 21.7 | 0.00 | 0.00 | 0.00 | 79 | 1015.5 |
| 20260510043606 | 49 | 52 | 14.8 | 21.7 | 0.00 | 0.00 | 0.00 | 79 | 1015.5 |
| 20260510043506 | 49 | 55 | 12.2 | 21.7 | 0.00 | 0.00 | 0.00 | 79 | 1015.6 |
| 20260510043406 | 49 | 57 | 13.0 | 17.4 | 0.00 | 0.00 | 0.00 | 79 | 1015.5 |
| 20260510043306 | 49 | 55 | 15.6 | 20.9 | 0.00 | 0.00 | 0.00 | 79 | 1015.5 |
| 20260510043205 | 49 | 53 | 14.8 | 20.9 | 0.00 | 0.00 | 0.00 | 79 | 1015.5 |
| 20260510043105 | 49 | 55 | 14.8 | 17.4 | 0.00 | 0.00 | 0.00 | 79 | 1015.5 |
| 20260510043005 | 49 | 59 | 14.8 | 20.0 | 0.00 | 0.00 | 0.00 | 79 | 1015.4 |
| 20260510042905 | 49 | 58 | 14.8 | 19.1 | 0.00 | 0.00 | 0.00 | 79 | 1015.5 |
| 20260510042805 | 49 | 50 | 14.8 | 17.4 | 0.00 | 0.00 | 0.00 | 79 | 1015.5 |
| 20260510042705 | 49 | 53 | 14.8 | 20.0 | 0.00 | 0.00 | 0.00 | 79 | 1015.5 |
| 20260510042605 | 49 | 55 | 14.8 | 15.6 | 0.00 | 0.00 | 0.00 | 79 | 1015.5 |
| 20260510042505 | 49 | 56 | 14.8 | 19.1 | 0.00 | 0.00 | 0.00 | 79 | 1015.5 |
| 20260510042405 | 49 | 58 | 15.6 | 18.2 | 0.00 | 0.00 | 0.00 | 79 | 1015.5 |
| 20260510042306 | 49 | 55 | 15.6 | 20.9 | 0.00 | 0.00 | 0.00 | 79 | 1015.5 |
| 20260510042205 | 49 | 54 | 14.8 | 20.0 | 0.00 | 0.00 | 0.00 | 79 | 1015.5 |
| 20260510042105 | 49 | 58 | 14.8 | 20.9 | 0.00 | 0.00 | 0.00 | 79 | 1015.5 |
| 20260510042005 | 49 | 56 | 15.6 | 20.9 | 0.00 | 0.00 | 0.00 | 79 | 1015.5 |
| 20260510041904 | 49 | 57 | 15.6 | 20.0 | 0.00 | 0.00 | 0.00 | 79 | 1015.5 |
| 20260510041804 | 49 | 57 | 17.4 | 21.7 | 0.00 | 0.00 | 0.00 | 79 | 1015.5 |
| 20260510041704 | 49 | 56 | 15.6 | 20.0 | 0.00 | 0.00 | 0.00 | 79 | 1015.5 |
| 20260510041604 | 49 | 53 | 13.0 | 17.4 | 0.00 | 0.00 | 0.00 | 79 | 1015.5 |
| 20260510041504 | 49 | 54 | 13.9 | 18.2 | 0.00 | 0.00 | 0.00 | 78 | 1015.5 |
| 20260510041404 | 49 | 53 | 13.9 | 19.1 | 0.00 | 0.00 | 0.00 | 78 | 1015.6 |
| 20260510041304 | 49 | 55 | 14.8 | 20.9 | 0.00 | 0.00 | 0.00 | 78 | 1015.6 |
| 20260510041204 | 49 | 53 | 14.8 | 19.1 | 0.00 | 0.00 | 0.00 | 78 | 1015.6 |
| 20260510041104 | 49 | 55 | 15.6 | 20.0 | 0.00 | 0.00 | 0.00 | 78 | 1015.5 |
| 20260510041004 | 49 | 52 | 15.6 | 19.1 | 0.00 | 0.00 | 0.00 | 78 | 1015.6 |
| 20260510040904 | 49 | 55 | 14.8 | 19.1 | 0.00 | 0.00 | 0.00 | 77 | 1015.6 |
| 20260510040804 | 49 | 54 | 17.4 | 21.7 | 0.00 | 0.00 | 0.00 | 77 | 1015.6 |
| 20260510040704 | 50 | 53 | 13.0 | 20.0 | 0.00 | 0.00 | 0.00 | 77 | 1015.6 |
| 20260510040604 | 49 | 55 | 13.0 | 17.4 | 0.00 | 0.00 | 0.00 | 77 | 1015.6 |
| 20260510040504 | 50 | 56 | 12.2 | 13.9 | 0.00 | 0.00 | 0.00 | 77 | 1015.6 |
| 20260510040404 | 50 | 57 | 12.2 | 15.6 | 0.00 | 0.00 | 0.00 | 76 | 1015.6 |
| 20260510040303 | 50 | 58 | 14.8 | 18.2 | 0.00 | 0.00 | 0.00 | 76 | 1015.7 |
| 20260510040203 | 50 | 59 | 13.9 | 17.4 | 0.00 | 0.00 | 0.00 | 76 | 1015.7 |
| 20260510040103 | 50 | 60 | 13.0 | 17.4 | 0.00 | 0.00 | 0.00 | 76 | 1015.7 |
| 20260510040003 | 50 | 53 | 12.2 | 18.2 | 0.00 | 0.00 | 0.00 | 76 | 1015.7 |
| 20260510035903 | 50 | 51 | 13.9 | 14.8 | 0.00 | 0.00 | 0.00 | 76 | 1015.8 |
| 20260510035803 | 50 | 59 | 14.8 | 21.7 | 0.00 | 0.00 | 0.00 | 75 | 1015.7 |
| 20260510035703 | 50 | 49 | 15.6 | 20.0 | 0.00 | 0.00 | 0.00 | 75 | 1015.7 |
| 20260510035533 | 50 | 57 | 17.4 | 21.7 | 0.00 | 0.00 | 0.00 | 75 | 1015.7 |
| 20260510035433 | 50 | 61 | 17.4 | 20.0 | 0.00 | 0.00 | 0.00 | 74 | 1015.8 |
| 20260510035333 | 50 | 63 | 19.1 | 21.7 | 0.00 | 0.00 | 0.00 | 74 | 1015.8 |
| 20260510035233 | 50 | 55 | 15.6 | 24.3 | 0.00 | 0.00 | 0.00 | 74 | 1015.8 |
| 20260510035133 | 50 | 51 | 14.8 | 20.9 | 0.00 | 0.00 | 0.00 | 74 | 1015.8 |
| 20260510035033 | 50 | 50 | 13.9 | 19.1 | 0.00 | 0.00 | 0.00 | 74 | 1015.8 |
| 20260510034933 | 50 | 63 | 14.8 | 20.0 | 0.00 | 0.00 | 0.00 | 74 | 1015.8 |
| 20260510034833 | 50 | 54 | 14.8 | 24.3 | 0.00 | 0.00 | 0.00 | 73 | 1015.8 |
| 20260510034732 | 50 | 53 | 14.8 | 20.9 | 0.00 | 0.00 | 0.00 | 73 | 1015.9 |
| 20260510034632 | 50 | 54 | 15.6 | 21.7 | 0.00 | 0.00 | 0.00 | 73 | 1015.9 |
| 20260510034532 | 50 | 51 | 15.6 | 18.2 | 0.00 | 0.00 | 0.00 | 73 | 1015.9 |
| 20260510034432 | 50 | 58 | 15.6 | 20.9 | 0.00 | 0.00 | 0.00 | 73 | 1015.9 |
| 20260510034332 | 50 | 58 | 14.8 | 18.2 | 0.00 | 0.00 | 0.00 | 72 | 1015.9 |
| 20260510034232 | 50 | 59 | 17.4 | 22.6 | 0.00 | 0.00 | 0.00 | 72 | 1015.9 |
| 20260510034132 | 50 | 58 | 15.6 | 19.1 | 0.00 | 0.00 | 0.00 | 72 | 1015.8 |
| 20260510034032 | 50 | 58 | 14.8 | 20.0 | 0.00 | 0.00 | 0.00 | 72 | 1015.8 |
| 20260510033932 | 50 | 50 | 14.8 | 20.9 | 0.00 | 0.00 | 0.00 | 72 | 1015.9 |
| 20260510033832 | 50 | 56 | 14.8 | 18.2 | 0.00 | 0.00 | 0.00 | 72 | 1015.9 |
| 20260510033732 | 50 | 58 | 14.8 | 20.0 | 0.00 | 0.00 | 0.00 | 71 | 1015.9 |
| 20260510033632 | 50 | 55 | 13.9 | 20.0 | 0.00 | 0.00 | 0.00 | 71 | 1015.8 |
| 20260510033531 | 50 | 58 | 14.8 | 20.0 | 0.00 | 0.00 | 0.00 | 71 | 1015.9 |
| 20260510033431 | 50 | 59 | 13.9 | 19.1 | 0.00 | 0.00 | 0.00 | 71 | 1015.9 |
| 20260510033331 | 51 | 59 | 13.9 | 17.4 | 0.00 | 0.00 | 0.00 | 71 | 1015.9 |
| 20260510033231 | 51 | 58 | 14.8 | 20.0 | 0.00 | 0.00 | 0.00 | 70 | 1015.9 |
| 20260510033101 | 51 | 49 | 13.9 | 17.4 | 0.00 | 0.00 | 0.00 | 70 | 1015.9 |
| 20260510033001 | 51 | 53 | 14.8 | 20.9 | 0.00 | 0.00 | 0.00 | 70 | 1015.9 |
| 20260510032831 | 51 | 55 | 15.6 | 20.0 | 0.00 | 0.00 | 0.00 | 69 | 1016.0 |
| 20260510032731 | 51 | 55 | 13.0 | 18.2 | 0.00 | 0.00 | 0.00 | 69 | 1016.0 |
| 20260510032631 | 51 | 56 | 13.9 | 18.2 | 0.00 | 0.00 | 0.00 | 69 | 1016.0 |
| 20260510032531 | 51 | 48 | 14.8 | 19.1 | 0.00 | 0.00 | 0.00 | 69 | 1016.0 |
| 20260510032431 | 51 | 53 | 13.9 | 18.2 | 0.00 | 0.00 | 0.00 | 69 | 1016.0 |
| 20260510032301 | 51 | 55 | 14.8 | 19.1 | 0.00 | 0.00 | 0.00 | 69 | 1016.0 |
| 20260510032201 | 51 | 58 | 14.8 | 17.4 | 0.00 | 0.00 | 0.00 | 68 | 1016.0 |
| 20260510032101 | 51 | 54 | 15.6 | 20.9 | 0.00 | 0.00 | 0.00 | 68 | 1016.0 |
| 20260510032001 | 51 | 55 | 14.8 | 18.2 | 0.00 | 0.00 | 0.00 | 68 | 1016.0 |
| 20260510031901 | 51 | 54 | 13.9 | 17.4 | 0.00 | 0.00 | 0.00 | 68 | 1016.0 |
| 20260510031801 | 51 | 56 | 13.9 | 21.7 | 0.00 | 0.00 | 0.00 | 68 | 1016.0 |
| 20260510031701 | 51 | 56 | 13.9 | 17.4 | 0.00 | 0.00 | 0.00 | 68 | 1016.1 |
| 20260510031601 | 51 | 58 | 14.8 | 20.0 | 0.00 | 0.00 | 0.00 | 68 | 1016.1 |
| 20260510031500 | 51 | 50 | 13.0 | 18.2 | 0.00 | 0.00 | 0.00 | 68 | 1016.1 |
| 20260510031400 | 51 | 51 | 13.9 | 18.2 | 0.00 | 0.00 | 0.00 | 68 | 1016.1 |
| 20260510031300 | 51 | 58 | 13.9 | 17.4 | 0.00 | 0.00 | 0.00 | 68 | 1016.1 |
| 20260510031200 | 51 | 55 | 15.6 | 18.2 | 0.00 | 0.00 | 0.00 | 67 | 1016.2 |
| 20260510031100 | 52 | 58 | 14.8 | 19.1 | 0.00 | 0.00 | 0.00 | 67 | 1016.2 |
| 20260510031000 | 52 | 51 | 13.0 | 17.4 | 0.00 | 0.00 | 0.00 | 67 | 1016.2 |
| 20260510030900 | 52 | 47 | 13.0 | 17.4 | 0.00 | 0.00 | 0.00 | 67 | 1016.2 |
| 20260510030800 | 52 | 56 | 12.2 | 17.4 | 0.00 | 0.00 | 0.00 | 67 | 1016.1 |
| 20260510030700 | 52 | 55 | 13.0 | 14.8 | 0.00 | 0.00 | 0.00 | 67 | 1016.2 |
| 20260510030600 | 52 | 56 | 14.8 | 18.2 | 0.00 | 0.00 | 0.00 | 67 | 1016.2 |
| 20260510030500 | 52 | 53 | 13.0 | 18.2 | 0.00 | 0.00 | 0.00 | 67 | 1016.2 |
| 20260510030330 | 52 | 48 | 12.2 | 17.4 | 0.00 | 0.00 | 0.00 | 67 | 1016.2 |
| 20260510030230 | 52 | 58 | 13.0 | 17.4 | 0.00 | 0.00 | 0.00 | 67 | 1016.2 |
| 20260510030130 | 52 | 50 | 13.9 | 17.4 | 0.00 | 0.00 | 0.00 | 67 | 1016.2 |
| 20260510030030 | 52 | 57 | 13.0 | 19.1 | 0.00 | 0.00 | 0.00 | 67 | 1016.2 |
| 20260510025929 | 52 | 55 | 12.2 | 19.1 | 0.00 | 0.00 | 0.00 | 67 | 1016.2 |
| 20260510025829 | 52 | 57 | 12.2 | 14.8 | 0.00 | 0.00 | 0.00 | 67 | 1016.2 |
| 20260510025729 | 52 | 58 | 12.2 | 17.4 | 0.00 | 0.00 | 0.00 | 67 | 1016.2 |
| 20260510025629 | 52 | 57 | 12.2 | 17.4 | 0.00 | 0.00 | 0.00 | 67 | 1016.2 |
| 20260510025529 | 52 | 55 | 13.0 | 15.6 | 0.00 | 0.00 | 0.00 | 67 | 1016.1 |
| 20260510025429 | 52 | 59 | 13.9 | 17.4 | 0.00 | 0.00 | 0.00 | 67 | 1016.1 |
| 20260510025329 | 52 | 57 | 13.9 | 17.4 | 0.00 | 0.00 | 0.00 | 66 | 1016.2 |
| 20260510025229 | 53 | 57 | 13.0 | 17.4 | 0.00 | 0.00 | 0.00 | 66 | 1016.2 |
| 20260510025129 | 53 | 60 | 13.0 | 17.4 | 0.00 | 0.00 | 0.00 | 66 | 1016.1 |
| 20260510025028 | 53 | 51 | 12.2 | 14.8 | 0.00 | 0.00 | 0.00 | 66 | 1016.1 |
| 20260510024928 | 53 | 49 | 12.2 | 15.6 | 0.00 | 0.00 | 0.00 | 66 | 1016.2 |
| 20260510024828 | 53 | 58 | 13.0 | 17.4 | 0.00 | 0.00 | 0.00 | 65 | 1016.2 |
| 20260510024728 | 53 | 59 | 13.0 | 15.6 | 0.00 | 0.00 | 0.00 | 64 | 1016.1 |
| 20260510024628 | 53 | 57 | 13.0 | 15.6 | 0.00 | 0.00 | 0.00 | 64 | 1016.1 |
| 20260510024528 | 53 | 58 | 13.0 | 17.4 | 0.00 | 0.00 | 0.00 | 64 | 1016.2 |
| 20260510024428 | 54 | 53 | 11.3 | 17.4 | 0.00 | 0.00 | 0.00 | 64 | 1016.2 |
| 20260510024328 | 54 | 61 | 11.3 | 14.8 | 0.00 | 0.00 | 0.00 | 64 | 1016.2 |
| 20260510024228 | 54 | 60 | 10.4 | 15.6 | 0.00 | 0.00 | 0.00 | 64 | 1016.2 |
| 20260510024128 | 54 | 64 | 12.2 | 17.4 | 0.00 | 0.00 | 0.00 | 63 | 1016.2 |
| 20260510024028 | 54 | 54 | 11.3 | 15.6 | 0.00 | 0.00 | 0.00 | 63 | 1016.2 |
| 20260510023928 | 54 | 54 | 10.4 | 14.8 | 0.00 | 0.00 | 0.00 | 62 | 1016.2 |
| 20260510023828 | 54 | 61 | 12.2 | 15.6 | 0.00 | 0.00 | 0.00 | 62 | 1016.2 |
| 20260510023728 | 54 | 66 | 14.8 | 18.2 | 0.00 | 0.00 | 0.00 | 62 | 1016.2 |
| 20260510023628 | 54 | 65 | 13.9 | 18.2 | 0.00 | 0.00 | 0.00 | 62 | 1016.2 |
| 20260510023527 | 54 | 63 | 11.3 | 17.4 | 0.00 | 0.00 | 0.00 | 62 | 1016.3 |
| 20260510023427 | 54 | 61 | 12.2 | 12.2 | 0.00 | 0.00 | 0.00 | 62 | 1016.2 |
| 20260510023327 | 54 | 61 | 13.9 | 18.2 | 0.00 | 0.00 | 0.00 | 62 | 1016.3 |
| 20260510023227 | 54 | 64 | 13.0 | 17.4 | 0.00 | 0.00 | 0.00 | 62 | 1016.2 |
| 20260510023127 | 54 | 63 | 13.9 | 17.4 | 0.00 | 0.00 | 0.00 | 61 | 1016.2 |
| 20260510023027 | 54 | 65 | 13.0 | 17.4 | 0.00 | 0.00 | 0.00 | 61 | 1016.2 |
| 20260510022927 | 54 | 60 | 11.3 | 15.6 | 0.00 | 0.00 | 0.00 | 62 | 1016.2 |
| 20260510022827 | 54 | 64 | 10.4 | 13.0 | 0.00 | 0.00 | 0.00 | 62 | 1016.2 |
| 20260510022727 | 54 | 64 | 11.3 | 13.9 | 0.00 | 0.00 | 0.00 | 62 | 1016.2 |
| 20260510022627 | 54 | 59 | 10.4 | 12.2 | 0.00 | 0.00 | 0.00 | 61 | 1016.2 |
| 20260510022527 | 54 | 67 | 12.2 | 13.0 | 0.00 | 0.00 | 0.00 | 61 | 1016.3 |
| 20260510022427 | 54 | 69 | 10.4 | 17.4 | 0.00 | 0.00 | 0.00 | 61 | 1016.2 |
| 20260510022327 | 54 | 62 | 8.7 | 10.4 | 0.00 | 0.00 | 0.00 | 61 | 1016.2 |
| 20260510022226 | 54 | 64 | 10.4 | 12.2 | 0.00 | 0.00 | 0.00 | 61 | 1016.3 |
| 20260510022126 | 54 | 60 | 8.7 | 13.9 | 0.00 | 0.00 | 0.00 | 61 | 1016.3 |
| 20260510022026 | 54 | 60 | 8.7 | 12.2 | 0.00 | 0.00 | 0.00 | 61 | 1016.3 |
| 20260510021926 | 55 | 70 | 10.4 | 14.8 | 0.00 | 0.00 | 0.00 | 61 | 1016.3 |
| 20260510021826 | 55 | 67 | 8.7 | 13.0 | 0.00 | 0.00 | 0.00 | 61 | 1016.3 |
| 20260510021726 | 55 | 66 | 10.4 | 11.3 | 0.00 | 0.00 | 0.00 | 60 | 1016.3 |
| 20260510021626 | 55 | 66 | 10.4 | 13.9 | 0.00 | 0.00 | 0.00 | 60 | 1016.3 |
| 20260510021526 | 55 | 63 | 8.7 | 13.0 | 0.00 | 0.00 | 0.00 | 60 | 1016.3 |
| 20260510021426 | 55 | 74 | 12.2 | 14.8 | 0.00 | 0.00 | 0.00 | 60 | 1016.2 |
| 20260510021326 | 55 | 70 | 11.3 | 15.6 | 0.00 | 0.00 | 0.00 | 60 | 1016.2 |
| 20260510021226 | 55 | 75 | 12.2 | 13.9 | 0.00 | 0.00 | 0.00 | 60 | 1016.2 |
| 20260510021056 | 55 | 66 | 11.3 | 15.6 | 0.00 | 0.00 | 0.00 | 60 | 1016.2 |
| 20260510020956 | 55 | 73 | 11.3 | 14.8 | 0.00 | 0.00 | 0.00 | 60 | 1016.2 |
| 20260510020855 | 55 | 71 | 8.7 | 14.8 | 0.00 | 0.00 | 0.00 | 60 | 1016.2 |
| 20260510020755 | 55 | 64 | 8.7 | 10.4 | 0.00 | 0.00 | 0.00 | 61 | 1016.2 |
| 20260510020655 | 55 | 65 | 11.3 | 13.0 | 0.00 | 0.00 | 0.00 | 60 | 1016.2 |
| 20260510020555 | 55 | 74 | 11.3 | 13.9 | 0.00 | 0.00 | 0.00 | 60 | 1016.3 |
| 20260510020455 | 55 | 65 | 11.3 | 15.6 | 0.00 | 0.00 | 0.00 | 61 | 1016.3 |
| 20260510020355 | 55 | 66 | 12.2 | 15.6 | 0.00 | 0.00 | 0.00 | 61 | 1016.2 |
| 20260510020255 | 55 | 71 | 12.2 | 20.0 | 0.00 | 0.00 | 0.00 | 61 | 1016.3 |
| 20260510020155 | 55 | 75 | 11.3 | 13.0 | 0.00 | 0.00 | 0.00 | 61 | 1016.2 |
| 20260510020055 | 55 | 69 | 13.0 | 14.8 | 0.00 | 0.00 | 0.00 | 61 | 1016.3 |
| 20260510015955 | 55 | 81 | 12.2 | 17.4 | 0.00 | 0.00 | 0.00 | 61 | 1016.2 |
| 20260510015855 | 55 | 70 | 10.4 | 14.8 | 0.00 | 0.00 | 0.00 | 61 | 1016.2 |
| 20260510015755 | 55 | 74 | 10.4 | 14.8 | 0.00 | 0.00 | 0.00 | 61 | 1016.2 |
| 20260510015655 | 55 | 74 | 10.4 | 13.0 | 0.00 | 0.00 | 0.00 | 61 | 1016.2 |
| 20260510015555 | 55 | 78 | 12.2 | 14.8 | 0.00 | 0.00 | 0.00 | 61 | 1016.2 |
| 20260510015455 | 55 | 68 | 11.3 | 18.2 | 0.00 | 0.00 | 0.00 | 61 | 1016.3 |
| 20260510015355 | 55 | 68 | 10.4 | 13.0 | 0.00 | 0.00 | 0.00 | 61 | 1016.3 |
| 20260510015255 | 55 | 71 | 8.7 | 12.2 | 0.00 | 0.00 | 0.00 | 61 | 1016.2 |
| 20260510015154 | 55 | 71 | 10.4 | 12.2 | 0.00 | 0.00 | 0.00 | 60 | 1016.2 |
| 20260510015054 | 55 | 72 | 11.3 | 14.8 | 0.00 | 0.00 | 0.00 | 60 | 1016.2 |
| 20260510014954 | 55 | 80 | 10.4 | 15.6 | 0.00 | 0.00 | 0.00 | 60 | 1016.2 |
| 20260510014854 | 55 | 71 | 10.4 | 13.9 | 0.00 | 0.00 | 0.00 | 59 | 1016.3 |
| 20260510014754 | 55 | 73 | 13.0 | 17.4 | 0.00 | 0.00 | 0.00 | 59 | 1016.3 |
| 20260510014654 | 55 | 77 | 13.9 | 19.1 | 0.00 | 0.00 | 0.00 | 59 | 1016.2 |
| 20260510014554 | 55 | 76 | 13.0 | 17.4 | 0.00 | 0.00 | 0.00 | 59 | 1016.3 |
| 20260510014454 | 55 | 76 | 11.3 | 19.1 | 0.00 | 0.00 | 0.00 | 60 | 1016.3 |
| 20260510014354 | 55 | 73 | 8.7 | 12.2 | 0.00 | 0.00 | 0.00 | 60 | 1016.3 |
| 20260510014254 | 55 | 74 | 11.3 | 15.6 | 0.00 | 0.00 | 0.00 | 59 | 1016.3 |
| 20260510014154 | 55 | 73 | 11.3 | 15.6 | 0.00 | 0.00 | 0.00 | 59 | 1016.3 |
| 20260510014054 | 55 | 64 | 10.4 | 14.8 | 0.00 | 0.00 | 0.00 | 59 | 1016.2 |
| 20260510013954 | 55 | 70 | 10.4 | 14.8 | 0.00 | 0.00 | 0.00 | 59 | 1016.3 |
| 20260510013854 | 55 | 74 | 10.4 | 13.9 | 0.00 | 0.00 | 0.00 | 59 | 1016.3 |
| 20260510013754 | 55 | 77 | 11.3 | 13.9 | 0.00 | 0.00 | 0.00 | 59 | 1016.3 |
| 20260510013654 | 55 | 75 | 11.3 | 17.4 | 0.00 | 0.00 | 0.00 | 59 | 1016.3 |
| 20260510013554 | 55 | 81 | 11.3 | 17.4 | 0.00 | 0.00 | 0.00 | 59 | 1016.3 |
| 20260510013453 | 55 | 77 | 11.3 | 13.9 | 0.00 | 0.00 | 0.00 | 58 | 1016.3 |
| 20260510013353 | 55 | 70 | 10.4 | 14.8 | 0.00 | 0.00 | 0.00 | 58 | 1016.3 |
| 20260510013253 | 55 | 75 | 8.7 | 14.8 | 0.00 | 0.00 | 0.00 | 58 | 1016.3 |
| 20260510013153 | 55 | 69 | 11.3 | 11.3 | 0.00 | 0.00 | 0.00 | 58 | 1016.2 |
| 20260510013023 | 55 | 72 | 11.3 | 15.6 | 0.00 | 0.00 | 0.00 | 58 | 1016.3 |
| 20260510012923 | 55 | 72 | 11.3 | 14.8 | 0.00 | 0.00 | 0.00 | 58 | 1016.2 |
| 20260510012823 | 55 | 76 | 11.3 | 14.8 | 0.00 | 0.00 | 0.00 | 58 | 1016.3 |
| 20260510012723 | 55 | 68 | 10.4 | 15.6 | 0.00 | 0.00 | 0.00 | 58 | 1016.3 |
| 20260510012623 | 55 | 73 | 10.4 | 13.0 | 0.00 | 0.00 | 0.00 | 58 | 1016.3 |
| 20260510012523 | 55 | 73 | 10.4 | 13.9 | 0.00 | 0.00 | 0.00 | 58 | 1016.3 |
| 20260510012423 | 55 | 70 | 11.3 | 14.8 | 0.00 | 0.00 | 0.00 | 58 | 1016.3 |
| 20260510012323 | 55 | 80 | 8.7 | 13.0 | 0.00 | 0.00 | 0.00 | 59 | 1016.3 |
| 20260510012223 | 55 | 80 | 10.4 | 11.3 | 0.00 | 0.00 | 0.00 | 59 | 1016.3 |
| 20260510012123 | 55 | 76 | 10.4 | 14.8 | 0.00 | 0.00 | 0.00 | 59 | 1016.3 |
| 20260510012023 | 55 | 74 | 10.4 | 12.2 | 0.00 | 0.00 | 0.00 | 59 | 1016.3 |
| 20260510011922 | 55 | 67 | 10.4 | 13.9 | 0.00 | 0.00 | 0.00 | 58 | 1016.3 |
| 20260510011822 | 55 | 70 | 11.3 | 13.9 | 0.00 | 0.00 | 0.00 | 58 | 1016.3 |
| 20260510011726 | 55 | 62 | 10.4 | 13.9 | 0.00 | 0.00 | 0.00 | 58 | 1016.3 |
| 20260510011622 | 55 | 66 | 10.4 | 13.9 | 0.00 | 0.00 | 0.00 | 58 | 1016.3 |
| 20260510011522 | 55 | 69 | 10.4 | 17.4 | 0.00 | 0.00 | 0.00 | 58 | 1016.3 |
| 20260510011422 | 55 | 65 | 10.4 | 13.9 | 0.00 | 0.00 | 0.00 | 58 | 1016.3 |
| 20260510011322 | 55 | 67 | 10.4 | 12.2 | 0.00 | 0.00 | 0.00 | 59 | 1016.3 |
| 20260510011222 | 55 | 62 | 8.7 | 13.9 | 0.00 | 0.00 | 0.00 | 59 | 1016.3 |
| 20260510011122 | 55 | 63 | 8.7 | 11.3 | 0.00 | 0.00 | 0.00 | 58 | 1016.2 |
| 20260510011022 | 55 | 72 | 10.4 | 12.2 | 0.00 | 0.00 | 0.00 | 58 | 1016.3 |
| 20260510010922 | 55 | 65 | 10.4 | 14.8 | 0.00 | 0.00 | 0.00 | 58 | 1016.2 |
| 20260510010822 | 55 | 62 | 12.2 | 13.9 | 0.00 | 0.00 | 0.00 | 58 | 1016.2 |
| 20260510010722 | 55 | 65 | 11.3 | 17.4 | 0.00 | 0.00 | 0.00 | 58 | 1016.2 |
| 20260510010622 | 55 | 63 | 12.2 | 13.9 | 0.00 | 0.00 | 0.00 | 58 | 1016.2 |
| 20260510010522 | 55 | 68 | 13.9 | 15.6 | 0.00 | 0.00 | 0.00 | 59 | 1016.2 |
| 20260510010422 | 55 | 63 | 13.0 | 18.2 | 0.00 | 0.00 | 0.00 | 59 | 1016.2 |
| 20260510010322 | 55 | 65 | 11.3 | 17.4 | 0.00 | 0.00 | 0.00 | 59 | 1016.2 |
| 20260510010221 | 55 | 65 | 8.7 | 12.2 | 0.00 | 0.00 | 0.00 | 59 | 1016.2 |
| 20260510010121 | 55 | 61 | 11.3 | 18.2 | 0.00 | 0.00 | 0.00 | 60 | 1016.2 |
| 20260510010021 | 55 | 60 | 12.2 | 15.6 | 0.00 | 0.00 | 0.00 | 59 | 1016.2 |
| 20260510005921 | 55 | 63 | 10.4 | 17.4 | 0.00 | 0.00 | 0.00 | 60 | 1016.2 |
| 20260510005821 | 55 | 60 | 13.0 | 15.6 | 0.00 | 0.00 | 0.00 | 59 | 1016.2 |
| 20260510005721 | 55 | 60 | 13.0 | 15.6 | 0.00 | 0.00 | 0.00 | 59 | 1016.2 |
| 20260510005621 | 55 | 62 | 11.3 | 14.8 | 0.00 | 0.00 | 0.00 | 59 | 1016.2 |
| 20260510005521 | 55 | 62 | 10.4 | 15.6 | 0.00 | 0.00 | 0.00 | 59 | 1016.2 |
| 20260510005421 | 56 | 65 | 8.7 | 13.0 | 0.00 | 0.00 | 0.00 | 59 | 1016.1 |
| 20260510005321 | 55 | 60 | 10.4 | 11.3 | 0.00 | 0.00 | 0.00 | 59 | 1016.1 |
| 20260510005221 | 55 | 66 | 10.4 | 13.0 | 0.00 | 0.00 | 0.00 | 59 | 1016.1 |
| 20260510005121 | 55 | 69 | 10.4 | 13.0 | 0.00 | 0.00 | 0.00 | 60 | 1016.2 |
| 20260510005021 | 55 | 60 | 8.7 | 12.2 | 0.00 | 0.00 | 0.00 | 60 | 1016.2 |
| 20260510004921 | 55 | 60 | 8.7 | 13.9 | 0.00 | 0.00 | 0.00 | 60 | 1016.1 |
| 20260510004821 | 56 | 64 | 8.7 | 10.4 | 0.00 | 0.00 | 0.00 | 60 | 1016.2 |
| 20260510004720 | 56 | 61 | 10.4 | 13.0 | 0.00 | 0.00 | 0.00 | 61 | 1016.2 |
| 20260510004620 | 56 | 66 | 8.7 | 13.0 | 0.00 | 0.00 | 0.00 | 61 | 1016.2 |
| 20260510004520 | 56 | 63 | 7.8 | 11.3 | 0.00 | 0.00 | 0.00 | 62 | 1016.2 |
| 20260510004350 | 56 | 56 | 7.8 | 10.4 | 0.00 | 0.00 | 0.00 | 61 | 1016.3 |
| 20260510004250 | 56 | 61 | 7.8 | 10.4 | 0.00 | 0.00 | 0.00 | 61 | 1016.3 |
| 20260510004150 | 56 | 63 | 7.0 | 10.4 | 0.00 | 0.00 | 0.00 | 61 | 1016.3 |
| 20260510004050 | 56 | 61 | 7.8 | 12.2 | 0.00 | 0.00 | 0.00 | 61 | 1016.3 |
| 20260510003950 | 56 | 58 | 8.7 | 12.2 | 0.00 | 0.00 | 0.00 | 60 | 1016.3 |
| 20260510003850 | 56 | 63 | 7.8 | 10.4 | 0.00 | 0.00 | 0.00 | 60 | 1016.4 |
| 20260510003750 | 56 | 57 | 7.0 | 10.4 | 0.00 | 0.00 | 0.00 | 60 | 1016.4 |
| 20260510003650 | 56 | 53 | 7.0 | 10.4 | 0.00 | 0.00 | 0.00 | 60 | 1016.4 |
| 20260510003550 | 56 | 59 | 7.0 | 8.7 | 0.00 | 0.00 | 0.00 | 60 | 1016.4 |
| 20260510003450 | 56 | 65 | 10.4 | 13.9 | 0.00 | 0.00 | 0.00 | 60 | 1016.4 |
| 20260510003350 | 56 | 59 | 8.7 | 11.3 | 0.00 | 0.00 | 0.00 | 60 | 1016.4 |
| 20260510003250 | 56 | 58 | 7.0 | 11.3 | 0.00 | 0.00 | 0.00 | 61 | 1016.4 |
| 20260510003150 | 56 | 54 | 7.0 | 7.0 | 0.00 | 0.00 | 0.00 | 61 | 1016.3 |
| 20260510003050 | 56 | 58 | 7.0 | 10.4 | 0.00 | 0.00 | 0.00 | 62 | 1016.4 |
| 20260510002949 | 56 | 56 | 7.0 | 10.4 | 0.00 | 0.00 | 0.00 | 62 | 1016.3 |
| 20260510002849 | 56 | 59 | 7.0 | 11.3 | 0.00 | 0.00 | 0.00 | 63 | 1016.4 |
| 20260510002749 | 56 | 55 | 6.1 | 7.8 | 0.00 | 0.00 | 0.00 | 63 | 1016.3 |
| 20260510002619 | 56 | 56 | 7.8 | 7.8 | 0.00 | 0.00 | 0.00 | 63 | 1016.3 |
| 20260510002519 | 56 | 55 | 8.7 | 12.2 | 0.00 | 0.00 | 0.00 | 63 | 1016.4 |
| 20260510002419 | 56 | 59 | 7.8 | 12.2 | 0.00 | 0.00 | 0.00 | 64 | 1016.3 |
| 20260510002319 | 56 | 65 | 7.8 | 10.4 | 0.00 | 0.00 | 0.00 | 64 | 1016.4 |
| 20260510002219 | 56 | 58 | 7.0 | 10.4 | 0.00 | 0.00 | 0.00 | 65 | 1016.3 |
| 20260510002119 | 56 | 61 | 7.0 | 8.7 | 0.00 | 0.00 | 0.00 | 66 | 1016.3 |
| 20260510002019 | 56 | 63 | 5.2 | 7.8 | 0.00 | 0.00 | 0.00 | 66 | 1016.3 |
| 20260510001919 | 56 | 58 | 6.1 | 7.0 | 0.00 | 0.00 | 0.00 | 66 | 1016.3 |
| 20260510001819 | 56 | 60 | 7.0 | 7.0 | 0.00 | 0.00 | 0.00 | 66 | 1016.3 |
| 20260510001719 | 56 | 59 | 7.0 | 8.7 | 0.00 | 0.00 | 0.00 | 67 | 1016.3 |
| 20260510001619 | 56 | 66 | 6.1 | 10.4 | 0.00 | 0.00 | 0.00 | 67 | 1016.3 |
| 20260510001518 | 56 | 53 | 5.2 | 6.1 | 0.00 | 0.00 | 0.00 | 66 | 1016.3 |
| 20260510001418 | 56 | 58 | 5.2 | 7.0 | 0.00 | 0.00 | 0.00 | 66 | 1016.3 |
| 20260510001318 | 56 | 57 | 5.2 | 7.0 | 0.00 | 0.00 | 0.00 | 66 | 1016.3 |
| 20260510001218 | 56 | 60 | 6.1 | 6.1 | 0.00 | 0.00 | 0.00 | 66 | 1016.3 |
| 20260510001118 | 56 | 66 | 5.2 | 7.8 | 0.00 | 0.00 | 0.00 | 66 | 1016.3 |
| 20260510000948 | 57 | 57 | 7.0 | 8.7 | 0.00 | 0.00 | 0.00 | 64 | 1016.3 |
| 20260510000848 | 57 | 63 | 7.8 | 10.4 | 0.00 | 0.00 | 0.00 | 63 | 1016.3 |
| 20260510000718 | 57 | 64 | 7.8 | 8.7 | 0.00 | 0.00 | 0.00 | 62 | 1016.3 |
| 20260510000548 | 57 | 63 | 7.8 | 10.4 | 0.00 | 0.00 | 0.00 | 59 | 1016.3 |
| 20260510000448 | 57 | 65 | 8.7 | 13.0 | 0.00 | 0.00 | 0.00 | 58 | 1016.3 |
| 20260510000349 | 57 | 69 | 8.7 | 12.2 | 0.00 | 0.00 | 0.00 | 58 | 1016.3 |
| 20260510000249 | 57 | 73 | 10.4 | 11.3 | 0.00 | 0.00 | 0.00 | 58 | 1016.3 |
| 20260510000148 | 57 | 71 | 12.2 | 15.6 | 0.00 | 0.00 | 0.00 | 58 | 1016.3 |
| 20260510000018 | 57 | 68 | 12.2 | 14.8 | 0.00 | 0.00 | 0.00 | 57 | 1016.3 |
| 20260509235918 | 57 | 72 | 10.4 | 14.8 | 0.00 | 0.00 | 0.00 | 57 | 1016.3 |
| 20260509235748 | 57 | 79 | 12.2 | 14.8 | 0.00 | 0.00 | 0.00 | 57 | 1016.3 |
| 20260509235648 | 57 | 80 | 11.3 | 13.9 | 0.00 | 0.00 | 0.00 | 57 | 1016.2 |
| 20260509235518 | 57 | 71 | 12.2 | 14.8 | 0.00 | 0.00 | 0.00 | 56 | 1016.2 |
| 20260509235418 | 57 | 77 | 12.2 | 14.8 | 0.00 | 0.00 | 0.00 | 56 | 1016.2 |
| 20260509235318 | 58 | 78 | 11.3 | 14.8 | 0.00 | 0.00 | 0.00 | 56 | 1016.2 |
| 20260509235148 | 58 | 79 | 14.8 | 18.2 | 0.00 | 0.00 | 0.00 | 55 | 1016.2 |
| 20260509235048 | 58 | 90 | 12.2 | 17.4 | 0.00 | 0.00 | 0.00 | 55 | 1016.2 |
| 20260509234948 | 58 | 79 | 12.2 | 17.4 | 0.00 | 0.00 | 0.00 | 54 | 1016.2 |
| 20260509234818 | 58 | 83 | 13.9 | 17.4 | 0.00 | 0.00 | 0.00 | 54 | 1016.2 |
| 20260509234718 | 58 | 84 | 13.0 | 19.1 | 0.00 | 0.00 | 0.00 | 54 | 1016.2 |
| 20260509234618 | 58 | 85 | 13.0 | 19.1 | 0.00 | 0.00 | 0.00 | 54 | 1016.2 |
| 20260509234448 | 58 | 83 | 12.2 | 17.4 | 0.00 | 0.00 | 0.00 | 55 | 1016.1 |
| 20260509234318 | 58 | 93 | 13.0 | 13.9 | 0.00 | 0.00 | 0.00 | 55 | 1016.2 |
| 20260509234218 | 58 | 91 | 13.9 | 18.2 | 0.00 | 0.00 | 0.00 | 56 | 1016.1 |
| 20260509234048 | 58 | 93 | 12.2 | 15.6 | 0.00 | 0.00 | 0.00 | 56 | 1016.2 |
| 20260509233918 | 58 | 80 | 13.0 | 15.6 | 0.00 | 0.00 | 0.00 | 57 | 1016.1 |
| 20260509233818 | 58 | 88 | 13.9 | 15.6 | 0.00 | 0.00 | 0.00 | 57 | 1016.1 |
| 20260509233648 | 58 | 89 | 15.6 | 20.9 | 0.00 | 0.00 | 0.00 | 56 | 1016.2 |
| 20260509233548 | 58 | 86 | 13.9 | 20.9 | 0.00 | 0.00 | 0.00 | 56 | 1016.2 |
| 20260509233448 | 58 | 91 | 13.9 | 17.4 | 0.00 | 0.00 | 0.00 | 57 | 1016.2 |
| 20260509233318 | 58 | 88 | 13.9 | 19.1 | 0.00 | 0.00 | 0.00 | 57 | 1016.2 |
| 20260509233218 | 58 | 87 | 13.0 | 17.4 | 0.00 | 0.00 | 0.00 | 57 | 1016.2 |
| 20260509233118 | 58 | 95 | 11.3 | 19.1 | 0.00 | 0.00 | 0.00 | 57 | 1016.3 |
| 20260509233018 | 58 | 89 | 13.9 | 18.2 | 0.00 | 0.00 | 0.00 | 57 | 1016.3 |
| 20260509232918 | 58 | 89 | 13.9 | 20.0 | 0.00 | 0.00 | 0.00 | 57 | 1016.3 |
| 20260509232748 | 58 | 86 | 12.2 | 17.4 | 0.00 | 0.00 | 0.00 | 57 | 1016.3 |
| 20260509232618 | 58 | 94 | 13.9 | 18.2 | 0.00 | 0.00 | 0.00 | 57 | 1016.3 |
| 20260509232518 | 58 | 96 | 12.2 | 18.2 | 0.00 | 0.00 | 0.00 | 56 | 1016.3 |
| 20260509232418 | 58 | 91 | 12.2 | 14.8 | 0.00 | 0.00 | 0.00 | 56 | 1016.3 |
| 20260509232248 | 58 | 89 | 11.3 | 15.6 | 0.00 | 0.00 | 0.00 | 56 | 1016.2 |
| 20260509232118 | 58 | 97 | 13.0 | 17.4 | 0.00 | 0.00 | 0.00 | 56 | 1016.2 |
| 20260509232018 | 58 | 96 | 13.9 | 18.2 | 0.00 | 0.00 | 0.00 | 57 | 1016.3 |
| 20260509231918 | 58 | 89 | 12.2 | 17.4 | 0.00 | 0.00 | 0.00 | 57 | 1016.3 |
| 20260509231818 | 58 | 92 | 11.3 | 13.9 | 0.00 | 0.00 | 0.00 | 57 | 1016.3 |
| 20260509231648 | 58 | 82 | 13.0 | 18.2 | 0.00 | 0.00 | 0.00 | 57 | 1016.3 |
| 20260509231548 | 58 | 90 | 13.0 | 20.0 | 0.00 | 0.00 | 0.00 | 57 | 1016.3 |
| 20260509231418 | 58 | 85 | 10.4 | 15.6 | 0.00 | 0.00 | 0.00 | 58 | 1016.3 |
| 20260509231248 | 58 | 84 | 11.3 | 14.8 | 0.00 | 0.00 | 0.00 | 58 | 1016.3 |
| 20260509231118 | 58 | 89 | 11.3 | 15.6 | 0.00 | 0.00 | 0.00 | 59 | 1016.3 |
| 20260509230948 | 58 | 79 | 7.8 | 12.2 | 0.00 | 0.00 | 0.00 | 61 | 1016.3 |
| 20260509230848 | 58 | 88 | 11.3 | 13.9 | 0.00 | 0.00 | 0.00 | 60 | 1016.3 |
| 20260509230718 | 58 | 79 | 12.2 | 15.6 | 0.00 | 0.00 | 0.00 | 61 | 1016.3 |
| 20260509230548 | 58 | 85 | 10.4 | 15.6 | 0.00 | 0.00 | 0.00 | 63 | 1016.3 |
| 20260509230448 | 58 | 83 | 10.4 | 13.9 | 0.00 | 0.00 | 0.00 | 64 | 1016.3 |
| 20260509230348 | 58 | 83 | 8.7 | 13.0 | 0.00 | 0.00 | 0.00 | 65 | 1016.3 |
| 20260509230248 | 58 | 89 | 7.0 | 10.4 | 0.00 | 0.00 | 0.00 | 66 | 1016.3 |
| 20260509230118 | 58 | 75 | 5.2 | 10.4 | 0.00 | 0.00 | 0.00 | 66 | 1016.3 |
| 20260509225948 | 58 | 73 | 8.7 | 12.2 | 0.00 | 0.00 | 0.00 | 66 | 1016.3 |
| 20260509225818 | 58 | 70 | 7.0 | 10.4 | 0.00 | 0.00 | 0.00 | 67 | 1016.4 |
| 20260509225718 | 58 | 72 | 6.1 | 7.8 | 0.00 | 0.00 | 0.00 | 66 | 1016.3 |
| 20260509225548 | 58 | 68 | 6.1 | 7.0 | 0.00 | 0.00 | 0.00 | 65 | 1016.2 |
| 20260509225448 | 58 | 68 | 6.1 | 7.0 | 0.00 | 0.00 | 0.00 | 65 | 1016.2 |
| 20260509225318 | 58 | 75 | 7.0 | 8.7 | 0.00 | 0.00 | 0.00 | 65 | 1016.2 |
| 20260509225148 | 58 | 82 | 6.1 | 8.7 | 0.00 | 0.00 | 0.00 | 65 | 1016.2 |
| 20260509225048 | 58 | 81 | 7.0 | 10.4 | 0.00 | 0.00 | 0.00 | 65 | 1016.2 |
| 20260509224918 | 58 | 79 | 5.2 | 7.8 | 0.00 | 0.00 | 0.00 | 65 | 1016.2 |
| 20260509224818 | 58 | 73 | 5.2 | 7.0 | 0.00 | 0.00 | 0.00 | 65 | 1016.1 |
| 20260509224718 | 59 | 75 | 6.1 | 7.0 | 0.00 | 0.00 | 0.00 | 66 | 1016.1 |
| 20260509224618 | 59 | 63 | 5.2 | 7.8 | 0.00 | 0.00 | 0.00 | 65 | 1016.2 |
| 20260509224448 | 59 | 61 | 6.1 | 7.0 | 0.00 | 0.00 | 0.00 | 64 | 1016.1 |
| 20260509224318 | 59 | 62 | 6.1 | 7.8 | 0.00 | 0.00 | 0.00 | 64 | 1016.1 |
| 20260509224218 | 59 | 70 | 6.1 | 7.8 | 0.00 | 0.00 | 0.00 | 63 | 1016.1 |
| 20260509224118 | 59 | 60 | 7.0 | 7.8 | 0.00 | 0.00 | 0.00 | 63 | 1016.0 |
| 20260509223948 | 59 | 67 | 6.1 | 8.7 | 0.00 | 0.00 | 0.00 | 63 | 1016.0 |
| 20260509223818 | 59 | 68 | 6.1 | 10.4 | 0.00 | 0.00 | 0.00 | 63 | 1016.0 |
| 20260509223648 | 59 | 68 | 6.1 | 7.8 | 0.00 | 0.00 | 0.00 | 64 | 1016.0 |
| 20260509223548 | 59 | 70 | 6.1 | 7.0 | 0.00 | 0.00 | 0.00 | 63 | 1016.0 |
| 20260509223448 | 59 | 71 | 7.0 | 7.8 | 0.00 | 0.00 | 0.00 | 63 | 1016.0 |
| 20260509223348 | 59 | 74 | 7.8 | 11.3 | 0.00 | 0.00 | 0.00 | 63 | 1016.0 |
| 20260509223218 | 60 | 62 | 7.0 | 10.4 | 0.00 | 0.00 | 0.00 | 62 | 1016.0 |
| 20260509223048 | 60 | 67 | 7.8 | 10.4 | 0.00 | 0.00 | 0.00 | 62 | 1016.0 |
| 20260509222918 | 60 | 66 | 8.7 | 10.4 | 0.00 | 0.00 | 0.00 | 61 | 1016.0 |
| 20260509222818 | 60 | 77 | 7.8 | 11.3 | 0.00 | 0.00 | 0.00 | 61 | 1016.0 |
| 20260509222718 | 60 | 71 | 8.7 | 8.7 | 0.00 | 0.00 | 0.00 | 61 | 1016.0 |
| 20260509222618 | 60 | 74 | 10.4 | 14.8 | 0.00 | 0.00 | 0.00 | 61 | 1016.0 |
| 20260509222448 | 60 | 76 | 8.7 | 11.3 | 0.00 | 0.00 | 0.00 | 61 | 1015.9 |
| 20260509222348 | 60 | 74 | 8.7 | 11.3 | 0.00 | 0.00 | 0.00 | 62 | 1015.9 |
| 20260509222218 | 60 | 73 | 8.7 | 11.3 | 0.00 | 0.00 | 0.00 | 62 | 1015.9 |
| 20260509222048 | 60 | 76 | 8.7 | 12.2 | 0.00 | 0.00 | 0.00 | 62 | 1015.9 |
| 20260509221948 | 60 | 72 | 8.7 | 12.2 | 0.00 | 0.00 | 0.00 | 62 | 1015.9 |
| 20260509221818 | 60 | 67 | 8.7 | 12.2 | 0.00 | 0.00 | 0.00 | 63 | 1015.9 |
| 20260509221718 | 60 | 71 | 7.8 | 12.2 | 0.00 | 0.00 | 0.00 | 63 | 1015.9 |
| 20260509221618 | 60 | 69 | 7.8 | 10.4 | 0.00 | 0.00 | 0.00 | 63 | 1015.9 |
| 20260509221448 | 60 | 67 | 7.0 | 10.4 | 0.00 | 0.00 | 0.00 | 63 | 1015.9 |
| 20260509221348 | 60 | 67 | 6.1 | 10.4 | 0.00 | 0.00 | 0.00 | 64 | 1015.9 |
| 20260509221248 | 60 | 66 | 7.0 | 7.8 | 0.00 | 0.00 | 0.00 | 64 | 1015.9 |
| 20260509221148 | 60 | 67 | 7.0 | 10.4 | 0.00 | 0.00 | 0.00 | 63 | 1015.9 |
| 20260509221048 | 60 | 65 | 6.1 | 8.7 | 0.00 | 0.00 | 0.00 | 63 | 1015.9 |
| 20260509220918 | 60 | 63 | 5.2 | 7.0 | 0.00 | 0.00 | 0.00 | 63 | 1016.0 |
| 20260509220818 | 60 | 67 | 6.1 | 6.1 | 0.00 | 0.00 | 0.00 | 63 | 1015.9 |
| 20260509220718 | 60 | 67 | 6.1 | 7.8 | 0.00 | 0.00 | 0.00 | 63 | 1015.9 |
| 20260509220548 | 60 | 65 | 7.0 | 10.4 | 0.00 | 0.00 | 0.00 | 63 | 1015.9 |
| 20260509220448 | 60 | 67 | 7.0 | 7.8 | 0.00 | 0.00 | 0.00 | 62 | 1015.9 |
| 20260509220348 | 60 | 69 | 6.1 | 7.8 | 0.00 | 0.00 | 0.00 | 62 | 1015.9 |
| 20260509220218 | 60 | 64 | 6.1 | 7.8 | 0.00 | 0.00 | 0.00 | 62 | 1015.9 |
| 20260509220118 | 60 | 70 | 7.0 | 7.8 | 0.00 | 0.00 | 0.00 | 62 | 1015.9 |
| 20260509215948 | 60 | 70 | 8.7 | 11.3 | 0.00 | 0.00 | 0.00 | 63 | 1015.9 |
| 20260509215818 | 60 | 73 | 7.0 | 11.3 | 0.00 | 0.00 | 0.00 | 64 | 1015.9 |
| 20260509215648 | 59 | 68 | 6.1 | 10.4 | 0.00 | 0.00 | 0.00 | 65 | 1015.9 |
| 20260509215548 | 59 | 70 | 6.1 | 10.4 | 0.00 | 0.00 | 0.00 | 65 | 1015.9 |
| 20260509215418 | 59 | 71 | 6.1 | 8.7 | 0.00 | 0.00 | 0.00 | 65 | 1015.9 |
| 20260509215248 | 59 | 69 | 7.0 | 12.2 | 0.00 | 0.00 | 0.00 | 66 | 1015.9 |
| 20260509215148 | 59 | 64 | 7.0 | 8.7 | 0.00 | 0.00 | 0.00 | 66 | 1015.9 |
| 20260509215048 | 59 | 67 | 8.7 | 10.4 | 0.00 | 0.00 | 0.00 | 66 | 1015.9 |
| 20260509214918 | 59 | 64 | 6.1 | 11.3 | 0.00 | 0.00 | 0.00 | 67 | 1015.9 |
| 20260509214818 | 59 | 70 | 6.1 | 7.0 | 0.00 | 0.00 | 0.00 | 66 | 1015.9 |
| 20260509214648 | 59 | 65 | 5.2 | 6.1 | 0.00 | 0.00 | 0.00 | 66 | 1015.9 |
| 20260509214518 | 59 | 63 | 5.2 | 6.1 | 0.00 | 0.00 | 0.00 | 66 | 1015.9 |
| 20260509214418 | 59 | 63 | 5.2 | 5.2 | 0.00 | 0.00 | 0.00 | 66 | 1015.9 |
| 20260509214248 | 59 | 63 | 6.1 | 7.8 | 0.00 | 0.00 | 0.00 | 65 | 1015.9 |
| 20260509214148 | 60 | 60 | 5.2 | 7.0 | 0.00 | 0.00 | 0.00 | 65 | 1015.9 |
| 20260509214018 | 60 | 66 | 5.2 | 6.1 | 0.00 | 0.00 | 0.00 | 65 | 1015.9 |
| 20260509213848 | 60 | 64 | 6.1 | 7.0 | 0.00 | 0.00 | 0.00 | 64 | 1015.9 |
| 20260509213748 | 60 | 67 | 6.1 | 7.0 | 0.00 | 0.00 | 0.00 | 64 | 1015.9 |
| 20260509213648 | 60 | 61 | 6.1 | 7.8 | 0.00 | 0.00 | 0.00 | 64 | 1015.9 |
| 20260509213518 | 60 | 63 | 6.1 | 8.7 | 0.00 | 0.00 | 0.00 | 64 | 1015.9 |
| 20260509213348 | 60 | 66 | 5.2 | 7.0 | 0.00 | 0.00 | 0.00 | 64 | 1015.8 |
| 20260509213218 | 60 | 65 | 5.2 | 6.1 | 0.00 | 0.00 | 0.00 | 64 | 1015.8 |
| 20260509213118 | 60 | 64 | 4.3 | 5.2 | 0.00 | 0.00 | 0.00 | 64 | 1015.8 |
| 20260509213018 | 60 | 65 | 4.3 | 6.1 | 0.00 | 0.00 | 0.00 | 64 | 1015.8 |
| 20260509212918 | 60 | 62 | 4.3 | 5.2 | 0.00 | 0.00 | 0.00 | 63 | 1015.8 |
| 20260509212748 | 60 | 63 | 5.2 | 7.0 | 0.00 | 0.00 | 0.00 | 63 | 1015.8 |
| 20260509212618 | 60 | 59 | 5.2 | 7.0 | 0.00 | 0.00 | 0.00 | 63 | 1015.8 |
| 20260509212518 | 60 | 61 | 5.2 | 7.0 | 0.00 | 0.00 | 0.00 | 63 | 1015.9 |
| 20260509212418 | 61 | 59 | 5.2 | 5.2 | 0.00 | 0.00 | 0.00 | 63 | 1015.9 |
| 20260509212248 | 61 | 62 | 5.2 | 6.1 | 0.00 | 0.00 | 0.00 | 62 | 1015.9 |
| 20260509212148 | 61 | 63 | 5.2 | 7.0 | 0.00 | 0.00 | 0.00 | 62 | 1015.9 |
| 20260509212048 | 61 | 61 | 5.2 | 6.1 | 0.00 | 0.00 | 0.00 | 62 | 1015.8 |
| 20260509211948 | 61 | 66 | 5.2 | 6.1 | 0.00 | 0.00 | 0.00 | 62 | 1015.9 |
| 20260509211818 | 61 | 64 | 5.2 | 6.1 | 0.00 | 0.00 | 0.00 | 62 | 1015.8 |
| 20260509211648 | 61 | 65 | 4.3 | 4.3 | 0.00 | 0.00 | 0.00 | 62 | 1015.8 |
| 20260509211548 | 61 | 66 | 4.3 | 5.2 | 0.00 | 0.00 | 0.00 | 62 | 1015.8 |
| 20260509211448 | 61 | 67 | 4.3 | 5.2 | 0.00 | 0.00 | 0.00 | 61 | 1015.9 |
| 20260509211318 | 61 | 66 | 4.3 | 4.3 | 0.00 | 0.00 | 0.00 | 61 | 1015.8 |
| 20260509211218 | 61 | 61 | 4.3 | 5.2 | 0.00 | 0.00 | 0.00 | 61 | 1015.8 |
| 20260509211048 | 61 | 66 | 4.3 | 4.3 | 0.00 | 0.00 | 0.00 | 61 | 1015.8 |
| 20260509210948 | 61 | 62 | 4.3 | 4.3 | 0.00 | 0.00 | 0.00 | 61 | 1015.8 |
| 20260509210848 | 61 | 62 | 4.3 | 5.2 | 0.00 | 0.00 | 0.00 | 61 | 1015.8 |
| 20260509210718 | 61 | 63 | 5.2 | 5.2 | 0.00 | 0.00 | 0.00 | 61 | 1015.8 |
| 20260509210548 | 61 | 62 | 4.3 | 5.2 | 0.00 | 0.00 | 0.00 | 61 | 1015.8 |
| 20260509210418 | 61 | 58 | 4.3 | 5.2 | 0.00 | 0.00 | 0.00 | 61 | 1015.8 |
| 20260509210248 | 61 | 48 | 5.2 | 6.1 | 0.00 | 0.00 | 0.00 | 61 | 1015.8 |
| 20260509210118 | 61 | 46 | 5.2 | 6.1 | 0.00 | 0.00 | 0.00 | 61 | 1015.8 |
| 20260509205948 | 61 | 53 | 4.3 | 5.2 | 0.00 | 0.00 | 0.00 | 61 | 1015.8 |
| 20260509205848 | 61 | 57 | 4.3 | 4.3 | 0.00 | 0.00 | 0.00 | 61 | 1015.8 |
| 20260509205748 | 61 | 56 | 4.3 | 5.2 | 0.00 | 0.00 | 0.00 | 61 | 1015.8 |
| 20260509205618 | 61 | 59 | 4.3 | 5.2 | 0.00 | 0.00 | 0.00 | 61 | 1015.8 |
| 20260509205448 | 61 | 57 | 4.3 | 5.2 | 0.00 | 0.00 | 0.00 | 61 | 1015.8 |
| 20260509205348 | 61 | 55 | 4.3 | 5.2 | 0.00 | 0.00 | 0.00 | 61 | 1015.8 |
| 20260509205218 | 61 | 59 | 4.3 | 5.2 | 0.00 | 0.00 | 0.00 | 61 | 1015.8 |
| 20260509205118 | 61 | 52 | 4.3 | 4.3 | 0.00 | 0.00 | 0.00 | 61 | 1015.8 |
| 20260509204948 | 61 | 51 | 4.3 | 5.2 | 0.00 | 0.00 | 0.00 | 61 | 1015.8 |
| 20260509204848 | 61 | 50 | 5.2 | 5.2 | 0.00 | 0.00 | 0.00 | 61 | 1015.8 |
| 20260509204748 | 61 | 49 | 5.2 | 5.2 | 0.00 | 0.00 | 0.00 | 61 | 1015.8 |
| 20260509204618 | 61 | 52 | 5.2 | 6.1 | 0.00 | 0.00 | 0.00 | 61 | 1015.8 |
| 20260509204448 | 61 | 38 | 5.2 | 5.2 | 0.00 | 0.00 | 0.00 | 61 | 1015.8 |
| 20260509204348 | 61 | 44 | 5.2 | 6.1 | 0.00 | 0.00 | 0.00 | 61 | 1015.8 |
| 20260509204218 | 61 | 42 | 5.2 | 7.0 | 0.00 | 0.00 | 0.00 | 61 | 1015.8 |
| 20260509204118 | 61 | 36 | 4.3 | 5.2 | 0.00 | 0.00 | 0.00 | 61 | 1015.8 |
| 20260509204018 | 61 | 41 | 4.3 | 5.2 | 0.00 | 0.00 | 0.00 | 61 | 1015.8 |
| 20260509203918 | 61 | 41 | 4.3 | 5.2 | 0.00 | 0.00 | 0.00 | 61 | 1015.8 |
| 20260509203748 | 61 | 43 | 2.6 | 4.3 | 0.00 | 0.00 | 0.00 | 61 | 1015.7 |
| 20260509203648 | 61 | 46 | 4.3 | 5.2 | 0.00 | 0.00 | 0.00 | 61 | 1015.7 |
| 20260509203548 | 61 | 44 | 2.6 | 5.2 | 0.00 | 0.00 | 0.00 | 61 | 1015.7 |
| 20260509203417 | 61 | 41 | 4.3 | 5.2 | 0.00 | 0.00 | 0.00 | 61 | 1015.6 |
| 20260509203317 | 61 | 48 | 5.2 | 5.2 | 0.00 | 0.00 | 0.00 | 61 | 1015.6 |
| 20260509203148 | 61 | 40 | 5.2 | 6.1 | 0.00 | 0.00 | 0.00 | 61 | 1015.5 |
| 20260509203048 | 61 | 44 | 5.2 | 7.0 | 0.00 | 0.00 | 0.00 | 61 | 1015.5 |
| 20260509202947 | 61 | 33 | 6.1 | 7.8 | 0.00 | 0.00 | 0.00 | 60 | 1015.4 |
| 20260509202847 | 61 | 34 | 6.1 | 7.0 | 0.00 | 0.00 | 0.00 | 61 | 1015.4 |
| 20260509202747 | 61 | 39 | 7.0 | 7.8 | 0.00 | 0.00 | 0.00 | 60 | 1015.4 |
| 20260509202647 | 61 | 37 | 6.1 | 7.8 | 0.00 | 0.00 | 0.00 | 61 | 1015.4 |
| 20260509202547 | 61 | 39 | 7.0 | 7.8 | 0.00 | 0.00 | 0.00 | 61 | 1015.4 |
| 20260509202447 | 61 | 35 | 7.0 | 7.8 | 0.00 | 0.00 | 0.00 | 61 | 1015.4 |
| 20260509202347 | 61 | 36 | 7.0 | 7.8 | 0.00 | 0.00 | 0.00 | 60 | 1015.4 |
| 20260509202247 | 61 | 31 | 7.8 | 8.7 | 0.00 | 0.00 | 0.00 | 60 | 1015.4 |
| 20260509202147 | 61 | 36 | 7.0 | 10.4 | 0.00 | 0.00 | 0.00 | 61 | 1015.4 |
| 20260509202047 | 61 | 33 | 6.1 | 8.7 | 0.00 | 0.00 | 0.00 | 61 | 1015.4 |
| 20260509201947 | 61 | 40 | 5.2 | 6.1 | 0.00 | 0.00 | 0.00 | 61 | 1015.4 |
| 20260509201846 | 60 | 40 | 6.1 | 7.0 | 0.00 | 0.00 | 0.00 | 61 | 1015.4 |
| 20260509201746 | 60 | 38 | 6.1 | 7.8 | 0.00 | 0.00 | 0.00 | 61 | 1015.5 |
| 20260509201647 | 60 | 39 | 6.1 | 7.0 | 0.00 | 0.00 | 0.00 | 61 | 1015.5 |
| 20260509201546 | 60 | 37 | 6.1 | 7.0 | 0.00 | 0.00 | 0.00 | 61 | 1015.4 |
| 20260509201446 | 60 | 29 | 6.1 | 7.8 | 0.00 | 0.00 | 0.00 | 61 | 1015.4 |
| 20260509201346 | 60 | 30 | 6.1 | 7.8 | 0.00 | 0.00 | 0.00 | 61 | 1015.4 |
| 20260509201246 | 60 | 32 | 6.1 | 7.0 | 0.00 | 0.00 | 0.00 | 61 | 1015.4 |
| 20260509201146 | 60 | 33 | 6.1 | 7.0 | 0.00 | 0.00 | 0.00 | 61 | 1015.4 |
| 20260509201046 | 60 | 26 | 6.1 | 7.0 | 0.00 | 0.00 | 0.00 | 61 | 1015.4 |
| 20260509200946 | 60 | 28 | 7.0 | 7.8 | 0.00 | 0.00 | 0.00 | 61 | 1015.4 |
| 20260509200846 | 60 | 27 | 7.0 | 7.0 | 0.00 | 0.00 | 0.00 | 61 | 1015.4 |
| 20260509200746 | 60 | 31 | 6.1 | 7.8 | 0.00 | 0.00 | 0.00 | 61 | 1015.4 |
| 20260509200646 | 61 | 39 | 7.0 | 7.8 | 0.00 | 0.00 | 0.00 | 61 | 1015.4 |
| 20260509200546 | 61 | 31 | 6.1 | 8.7 | 0.00 | 0.00 | 0.00 | 61 | 1015.4 |
| 20260509200446 | 61 | 32 | 6.1 | 7.0 | 0.00 | 0.00 | 0.00 | 61 | 1015.4 |
| 20260509200346 | 61 | 38 | 6.1 | 7.0 | 0.00 | 0.00 | 0.00 | 61 | 1015.4 |
| 20260509200246 | 61 | 39 | 6.1 | 7.0 | 0.00 | 0.00 | 0.00 | 61 | 1015.4 |
| 20260509200145 | 61 | 36 | 6.1 | 7.0 | 0.00 | 0.00 | 0.00 | 61 | 1015.4 |
| 20260509200045 | 61 | 29 | 6.1 | 6.1 | 0.00 | 0.00 | 0.00 | 61 | 1015.4 |
| 20260509195915 | 61 | 26 | 6.1 | 7.0 | 0.00 | 0.00 | 0.00 | 61 | 1015.4 |
| 20260509195815 | 61 | 30 | 5.2 | 7.0 | 0.00 | 0.00 | 0.00 | 61 | 1015.5 |
| 20260509195715 | 61 | 35 | 5.2 | 7.0 | 0.00 | 0.00 | 0.00 | 61 | 1015.5 |
| 20260509195615 | 61 | 27 | 5.2 | 7.0 | 0.00 | 0.00 | 0.00 | 61 | 1015.5 |
| 20260509195445 | 61 | 33 | 6.1 | 7.0 | 0.00 | 0.00 | 0.00 | 62 | 1015.5 |
| 20260509195345 | 61 | 42 | 5.2 | 6.1 | 0.00 | 0.00 | 0.00 | 62 | 1015.5 |
| 20260509195245 | 61 | 36 | 5.2 | 7.0 | 0.00 | 0.00 | 0.00 | 62 | 1015.5 |
| 20260509195145 | 61 | 38 | 5.2 | 6.1 | 0.00 | 0.00 | 0.00 | 62 | 1015.5 |
| 20260509195045 | 61 | 35 | 5.2 | 7.0 | 0.00 | 0.00 | 0.00 | 62 | 1015.6 |
| 20260509194945 | 61 | 40 | 5.2 | 6.1 | 0.00 | 0.00 | 0.00 | 62 | 1015.6 |
| 20260509194845 | 61 | 38 | 4.3 | 6.1 | 0.00 | 0.00 | 0.00 | 62 | 1015.6 |
| 20260509194745 | 61 | 36 | 5.2 | 6.1 | 0.00 | 0.00 | 0.00 | 62 | 1015.6 |
| 20260509194645 | 61 | 40 | 5.2 | 6.1 | 0.00 | 0.00 | 0.00 | 62 | 1015.6 |
| 20260509194545 | 61 | 36 | 5.2 | 5.2 | 0.00 | 0.00 | 0.00 | 62 | 1015.6 |
| 20260509194445 | 61 | 43 | 4.3 | 6.1 | 0.00 | 0.00 | 0.00 | 62 | 1015.6 |
| 20260509194345 | 60 | 47 | 4.3 | 5.2 | 0.00 | 0.00 | 0.00 | 62 | 1015.6 |
| 20260509194245 | 60 | 47 | 2.6 | 5.2 | 0.00 | 0.00 | 0.00 | 62 | 1015.6 |
| 20260509194145 | 60 | 48 | 4.3 | 4.3 | 0.00 | 0.00 | 0.00 | 62 | 1015.6 |
| 20260509194045 | 60 | 50 | 4.3 | 4.3 | 0.00 | 0.00 | 0.00 | 62 | 1015.6 |
| 20260509193945 | 60 | 52 | 4.3 | 4.3 | 0.00 | 0.00 | 0.00 | 62 | 1015.6 |
| 20260509193844 | 60 | 50 | 4.3 | 4.3 | 0.00 | 0.00 | 0.00 | 62 | 1015.6 |
| 20260509193744 | 60 | 54 | 4.3 | 4.3 | 0.00 | 0.00 | 0.00 | 62 | 1015.6 |
| 20260509193644 | 60 | 55 | 4.3 | 4.3 | 0.00 | 0.00 | 0.00 | 61 | 1015.6 |
| 20260509193544 | 60 | 55 | 4.3 | 4.3 | 0.00 | 0.00 | 0.00 | 61 | 1015.6 |
| 20260509193444 | 60 | 51 | 4.3 | 4.3 | 0.00 | 0.00 | 0.00 | 61 | 1015.6 |
| 20260509193344 | 60 | 54 | 4.3 | 4.3 | 0.00 | 0.00 | 0.00 | 61 | 1015.5 |
| 20260509193244 | 60 | 58 | 4.3 | 5.2 | 0.00 | 0.00 | 0.00 | 61 | 1015.5 |
| 20260509193144 | 60 | 57 | 5.2 | 5.2 | 0.00 | 0.00 | 0.00 | 62 | 1015.5 |
| 20260509193044 | 60 | 58 | 4.3 | 5.2 | 0.00 | 0.00 | 0.00 | 62 | 1015.5 |
| 20260509192944 | 60 | 56 | 4.3 | 5.2 | 0.00 | 0.00 | 0.00 | 62 | 1015.5 |
| 20260509192844 | 60 | 57 | 4.3 | 5.2 | 0.00 | 0.00 | 0.00 | 62 | 1015.5 |
| 20260509192744 | 60 | 56 | 4.3 | 5.2 | 0.00 | 0.00 | 0.00 | 62 | 1015.5 |
| 20260509192644 | 60 | 56 | 4.3 | 4.3 | 0.00 | 0.00 | 0.00 | 62 | 1015.4 |
| 20260509192544 | 60 | 54 | 4.3 | 5.2 | 0.00 | 0.00 | 0.00 | 62 | 1015.5 |
| 20260509192443 | 60 | 58 | 4.3 | 5.2 | 0.00 | 0.00 | 0.00 | 62 | 1015.5 |
| 20260509192343 | 60 | 57 | 4.3 | 5.2 | 0.00 | 0.00 | 0.00 | 62 | 1015.5 |
| 20260509192243 | 60 | 58 | 4.3 | 4.3 | 0.00 | 0.00 | 0.00 | 62 | 1015.4 |
| 20260509192143 | 60 | 58 | 4.3 | 4.3 | 0.00 | 0.00 | 0.00 | 61 | 1015.4 |
| 20260509192043 | 60 | 57 | 4.3 | 4.3 | 0.00 | 0.00 | 0.00 | 61 | 1015.4 |
| 20260509191943 | 60 | 56 | 4.3 | 5.2 | 0.00 | 0.00 | 0.00 | 61 | 1015.4 |
| 20260509191843 | 60 | 58 | 4.3 | 4.3 | 0.00 | 0.00 | 0.00 | 61 | 1015.3 |
| 20260509191743 | 60 | 53 | 4.3 | 4.3 | 0.00 | 0.00 | 0.00 | 61 | 1015.3 |
| 20260509191643 | 60 | 57 | 4.3 | 5.2 | 0.00 | 0.00 | 0.00 | 61 | 1015.3 |
| 20260509191543 | 60 | 58 | 4.3 | 4.3 | 0.00 | 0.00 | 0.00 | 61 | 1015.3 |
| 20260509191443 | 60 | 57 | 4.3 | 5.2 | 0.00 | 0.00 | 0.00 | 61 | 1015.3 |
| 20260509191343 | 60 | 59 | 4.3 | 5.2 | 0.00 | 0.00 | 0.00 | 61 | 1015.3 |
| 20260509191242 | 60 | 57 | 4.3 | 4.3 | 0.00 | 0.00 | 0.00 | 61 | 1015.3 |
| 20260509191142 | 60 | 58 | 4.3 | 5.2 | 0.00 | 0.00 | 0.00 | 61 | 1015.4 |
| 20260509191042 | 60 | 61 | 4.3 | 5.2 | 0.00 | 0.00 | 0.00 | 61 | 1015.4 |
| 20260509190942 | 60 | 59 | 5.2 | 5.2 | 0.00 | 0.00 | 0.00 | 61 | 1015.4 |
| 20260509190842 | 60 | 62 | 4.3 | 5.2 | 0.00 | 0.00 | 0.00 | 61 | 1015.4 |
| 20260509190742 | 60 | 59 | 4.3 | 5.2 | 0.00 | 0.00 | 0.00 | 61 | 1015.4 |
| 20260509190642 | 60 | 60 | 4.3 | 5.2 | 0.00 | 0.00 | 0.00 | 61 | 1015.4 |
| 20260509190542 | 60 | 59 | 5.2 | 5.2 | 0.00 | 0.00 | 0.00 | 61 | 1015.4 |
| 20260509190442 | 60 | 62 | 4.3 | 6.1 | 0.00 | 0.00 | 0.00 | 61 | 1015.4 |
| 20260509190342 | 60 | 64 | 4.3 | 5.2 | 0.00 | 0.00 | 0.00 | 61 | 1015.4 |
| 20260509190242 | 60 | 64 | 5.2 | 5.2 | 0.00 | 0.00 | 0.00 | 61 | 1015.4 |
| 20260509190141 | 60 | 61 | 5.2 | 6.1 | 0.00 | 0.00 | 0.00 | 61 | 1015.4 |
| 20260509190041 | 60 | 61 | 4.3 | 5.2 | 0.00 | 0.00 | 0.00 | 60 | 1015.4 |
| 20260509185941 | 60 | 61 | 4.3 | 6.1 | 0.00 | 0.00 | 0.00 | 60 | 1015.3 |
| 20260509185841 | 60 | 62 | 4.3 | 4.3 | 0.00 | 0.00 | 0.00 | 60 | 1015.3 |
| 20260509185741 | 60 | 63 | 4.3 | 4.3 | 0.00 | 0.00 | 0.00 | 60 | 1015.3 |
| 20260509185641 | 60 | 66 | 4.3 | 4.3 | 0.00 | 0.00 | 0.00 | 60 | 1015.2 |
| 20260509185541 | 60 | 66 | 2.6 | 4.3 | 0.00 | 0.00 | 0.00 | 60 | 1015.3 |
| 20260509185441 | 60 | 65 | 2.6 | 2.6 | 0.00 | 0.00 | 0.00 | 60 | 1015.3 |
| 20260509185341 | 61 | 73 | 2.6 | 4.3 | 0.00 | 0.00 | 0.00 | 59 | 1015.3 |
| 20260509185241 | 61 | 72 | 2.6 | 4.3 | 0.00 | 0.00 | 0.00 | 59 | 1015.3 |
| 20260509185141 | 61 | 74 | 2.6 | 4.3 | 0.00 | 0.00 | 0.00 | 59 | 1015.2 |
| 20260509185040 | 61 | 68 | 2.6 | 4.3 | 0.00 | 0.00 | 0.00 | 59 | 1015.2 |
| 20260509184940 | 61 | 64 | 4.3 | 4.3 | 0.00 | 0.00 | 0.00 | 59 | 1015.2 |
| 20260509184840 | 61 | 64 | 4.3 | 5.2 | 0.00 | 0.00 | 0.00 | 58 | 1015.2 |
| 20260509184740 | 61 | 73 | 5.2 | 6.1 | 0.00 | 0.00 | 0.00 | 58 | 1015.2 |
| 20260509184640 | 61 | 75 | 4.3 | 6.1 | 0.00 | 0.00 | 0.00 | 58 | 1015.2 |
| 20260509184540 | 61 | 76 | 5.2 | 4.3 | 0.00 | 0.00 | 0.00 | 58 | 1015.2 |
| 20260509184440 | 61 | 89 | 5.2 | 7.0 | 0.00 | 0.00 | 0.00 | 58 | 1015.2 |
| 20260509184340 | 61 | 82 | 5.2 | 6.1 | 0.00 | 0.00 | 0.00 | 58 | 1015.2 |
| 20260509184240 | 61 | 82 | 5.2 | 6.1 | 0.00 | 0.00 | 0.00 | 58 | 1015.3 |
| 20260509184140 | 61 | 76 | 6.1 | 7.8 | 0.00 | 0.00 | 0.00 | 57 | 1015.3 |
| 20260509184040 | 61 | 78 | 5.2 | 7.8 | 0.00 | 0.00 | 0.00 | 57 | 1015.3 |
| 20260509183940 | 61 | 83 | 5.2 | 6.1 | 0.00 | 0.00 | 0.00 | 58 | 1015.3 |
| 20260509183840 | 61 | 79 | 6.1 | 7.8 | 0.00 | 0.00 | 0.00 | 58 | 1015.3 |
| 20260509183740 | 61 | 86 | 6.1 | 10.4 | 0.00 | 0.00 | 0.00 | 58 | 1015.3 |
| 20260509183639 | 61 | 89 | 5.2 | 7.8 | 0.00 | 0.00 | 0.00 | 58 | 1015.3 |
| 20260509183539 | 61 | 79 | 5.2 | 7.0 | 0.00 | 0.00 | 0.00 | 58 | 1015.4 |
| 20260509183439 | 61 | 84 | 6.1 | 7.0 | 0.00 | 0.00 | 0.00 | 58 | 1015.3 |
| 20260509183339 | 61 | 83 | 6.1 | 7.8 | 0.00 | 0.00 | 0.00 | 58 | 1015.3 |
| 20260509183239 | 61 | 81 | 6.1 | 7.0 | 0.00 | 0.00 | 0.00 | 58 | 1015.4 |
| 20260509183139 | 61 | 80 | 6.1 | 7.0 | 0.00 | 0.00 | 0.00 | 58 | 1015.4 |
| 20260509183039 | 61 | 73 | 6.1 | 7.0 | 0.00 | 0.00 | 0.00 | 59 | 1015.4 |
| 20260509182939 | 61 | 80 | 6.1 | 7.8 | 0.00 | 0.00 | 0.00 | 59 | 1015.4 |
| 20260509182839 | 61 | 73 | 5.2 | 7.8 | 0.00 | 0.00 | 0.00 | 59 | 1015.4 |
| 20260509182739 | 61 | 81 | 5.2 | 6.1 | 0.00 | 0.00 | 0.00 | 58 | 1015.4 |
| 20260509182639 | 61 | 77 | 5.2 | 7.0 | 0.00 | 0.00 | 0.00 | 59 | 1015.4 |
| 20260509182539 | 61 | 78 | 5.2 | 6.1 | 0.00 | 0.00 | 0.00 | 58 | 1015.4 |
| 20260509182439 | 61 | 76 | 5.2 | 7.8 | 0.00 | 0.00 | 0.00 | 58 | 1015.4 |
| 20260509182339 | 61 | 83 | 6.1 | 10.4 | 0.00 | 0.00 | 0.00 | 58 | 1015.4 |
| 20260509182238 | 61 | 79 | 6.1 | 10.4 | 0.00 | 0.00 | 0.00 | 59 | 1015.4 |
| 20260509182138 | 61 | 79 | 4.3 | 7.8 | 0.00 | 0.00 | 0.00 | 59 | 1015.3 |
| 20260509182038 | 61 | 76 | 6.1 | 8.7 | 0.00 | 0.00 | 0.00 | 58 | 1015.3 |
| 20260509181938 | 61 | 80 | 4.3 | 8.7 | 0.00 | 0.00 | 0.00 | 59 | 1015.3 |
| 20260509181838 | 61 | 76 | 5.2 | 5.2 | 0.00 | 0.00 | 0.00 | 59 | 1015.3 |
| 20260509181738 | 61 | 88 | 4.3 | 6.1 | 0.00 | 0.00 | 0.00 | 58 | 1015.4 |
| 20260509181638 | 61 | 85 | 5.2 | 7.8 | 0.00 | 0.00 | 0.00 | 59 | 1015.3 |
| 20260509181538 | 61 | 83 | 5.2 | 7.8 | 0.00 | 0.00 | 0.00 | 59 | 1015.4 |
| 20260509181438 | 61 | 85 | 6.1 | 7.8 | 0.00 | 0.00 | 0.00 | 59 | 1015.4 |
| 20260509181338 | 61 | 82 | 5.2 | 7.8 | 0.00 | 0.00 | 0.00 | 59 | 1015.4 |
| 20260509181238 | 61 | 92 | 5.2 | 6.1 | 0.00 | 0.00 | 0.00 | 59 | 1015.4 |
| 20260509181138 | 61 | 88 | 6.1 | 7.0 | 0.00 | 0.00 | 0.00 | 58 | 1015.4 |
| 20260509181038 | 61 | 98 | 5.2 | 7.8 | 0.00 | 0.00 | 0.00 | 59 | 1015.4 |
| 20260509180938 | 61 | 101 | 6.1 | 7.8 | 0.00 | 0.00 | 0.00 | 58 | 1015.4 |
| 20260509180838 | 61 | 103 | 5.2 | 7.8 | 0.00 | 0.00 | 0.00 | 59 | 1015.4 |
| 20260509180738 | 61 | 101 | 6.1 | 7.8 | 0.00 | 0.00 | 0.00 | 59 | 1015.4 |
| 20260509180638 | 61 | 86 | 5.2 | 7.8 | 0.00 | 0.00 | 0.00 | 59 | 1015.4 |
| 20260509180537 | 61 | 104 | 5.2 | 6.1 | 0.00 | 0.00 | 0.00 | 58 | 1015.5 |
| 20260509180437 | 61 | 112 | 6.1 | 7.0 | 0.00 | 0.00 | 0.00 | 58 | 1015.5 |
| 20260509180337 | 61 | 92 | 6.1 | 7.8 | 0.00 | 0.00 | 0.00 | 58 | 1015.5 |
| 20260509180237 | 61 | 110 | 6.1 | 8.7 | 0.00 | 0.00 | 0.00 | 58 | 1015.5 |
| 20260509180137 | 61 | 97 | 6.1 | 7.0 | 0.00 | 0.00 | 0.00 | 58 | 1015.5 |
| 20260509180037 | 61 | 89 | 5.2 | 7.0 | 0.00 | 0.00 | 0.00 | 57 | 1015.5 |
| 20260509175937 | 61 | 101 | 5.2 | 7.8 | 0.00 | 0.00 | 0.00 | 58 | 1015.5 |
| 20260509175837 | 61 | 107 | 5.2 | 6.1 | 0.00 | 0.00 | 0.00 | 57 | 1015.5 |
| 20260509175737 | 61 | 98 | 7.0 | 8.7 | 0.00 | 0.00 | 0.00 | 57 | 1015.4 |
| 20260509175637 | 61 | 100 | 7.0 | 11.3 | 0.00 | 0.00 | 0.00 | 57 | 1015.5 |
| 20260509175537 | 61 | 95 | 6.1 | 7.0 | 0.00 | 0.00 | 0.00 | 57 | 1015.4 |
| 20260509175437 | 61 | 105 | 7.0 | 8.7 | 0.00 | 0.00 | 0.00 | 57 | 1015.5 |
| 20260509175337 | 61 | 103 | 7.0 | 8.7 | 0.00 | 0.00 | 0.00 | 56 | 1015.4 |
| 20260509175237 | 61 | 97 | 7.0 | 10.4 | 0.00 | 0.00 | 0.00 | 57 | 1015.4 |
| 20260509175137 | 61 | 116 | 6.1 | 8.7 | 0.00 | 0.00 | 0.00 | 57 | 1015.4 |
| 20260509175037 | 61 | 105 | 5.2 | 8.7 | 0.00 | 0.00 | 0.00 | 57 | 1015.4 |
| 20260509174936 | 61 | 99 | 5.2 | 7.0 | 0.00 | 0.00 | 0.00 | 57 | 1015.4 |
| 20260509174836 | 61 | 109 | 4.3 | 6.1 | 0.00 | 0.00 | 0.00 | 58 | 1015.3 |
| 20260509174736 | 61 | 109 | 5.2 | 5.2 | 0.00 | 0.00 | 0.00 | 57 | 1015.3 |
| 20260509174636 | 61 | 107 | 6.1 | 7.8 | 0.00 | 0.00 | 0.00 | 58 | 1015.3 |
| 20260509174536 | 61 | 100 | 5.2 | 7.8 | 0.00 | 0.00 | 0.00 | 58 | 1015.3 |
| 20260509174436 | 61 | 103 | 5.2 | 7.0 | 0.00 | 0.00 | 0.00 | 57 | 1015.3 |
| 20260509174336 | 61 | 104 | 5.2 | 7.0 | 0.00 | 0.00 | 0.00 | 58 | 1015.3 |
| 20260509174236 | 61 | 113 | 6.1 | 7.8 | 0.00 | 0.00 | 0.00 | 58 | 1015.3 |
| 20260509174136 | 61 | 115 | 7.8 | 11.3 | 0.00 | 0.00 | 0.00 | 58 | 1015.3 |
| 20260509174036 | 61 | 93 | 5.2 | 11.3 | 0.00 | 0.00 | 0.00 | 59 | 1015.3 |
| 20260509173936 | 61 | 102 | 5.2 | 7.0 | 0.00 | 0.00 | 0.00 | 59 | 1015.3 |
| 20260509173836 | 61 | 110 | 5.2 | 7.0 | 0.00 | 0.00 | 0.00 | 59 | 1015.3 |
| 20260509173736 | 61 | 104 | 5.2 | 6.1 | 0.00 | 0.00 | 0.00 | 59 | 1015.3 |
| 20260509173636 | 61 | 112 | 6.1 | 7.8 | 0.00 | 0.00 | 0.00 | 59 | 1015.3 |
| 20260509173536 | 61 | 115 | 6.1 | 7.0 | 0.00 | 0.00 | 0.00 | 59 | 1015.3 |
| 20260509173436 | 61 | 117 | 5.2 | 6.1 | 0.00 | 0.00 | 0.00 | 59 | 1015.3 |
| 20260509173336 | 61 | 117 | 5.2 | 7.0 | 0.00 | 0.00 | 0.00 | 59 | 1015.3 |
| 20260509173236 | 61 | 97 | 5.2 | 5.2 | 0.00 | 0.00 | 0.00 | 59 | 1015.3 |
| 20260509173135 | 61 | 107 | 6.1 | 7.8 | 0.00 | 0.00 | 0.00 | 59 | 1015.3 |
| 20260509173035 | 61 | 116 | 6.1 | 10.4 | 0.00 | 0.00 | 0.00 | 58 | 1015.3 |
| 20260509172935 | 61 | 121 | 7.8 | 10.4 | 0.00 | 0.00 | 0.00 | 58 | 1015.3 |
| 20260509172835 | 61 | 120 | 7.0 | 10.4 | 0.00 | 0.00 | 0.00 | 59 | 1015.3 |
| 20260509172735 | 61 | 108 | 7.0 | 8.7 | 0.00 | 0.00 | 0.00 | 58 | 1015.3 |
| 20260509172635 | 61 | 109 | 7.0 | 8.7 | 0.00 | 0.00 | 0.00 | 59 | 1015.3 |
| 20260509172535 | 61 | 113 | 7.0 | 10.4 | 0.00 | 0.00 | 0.00 | 58 | 1015.3 |
| 20260509172435 | 61 | 97 | 8.7 | 10.4 | 0.00 | 0.00 | 0.00 | 58 | 1015.3 |
| 20260509172335 | 61 | 109 | 8.7 | 13.0 | 0.00 | 0.00 | 0.00 | 59 | 1015.3 |
| 20260509172205 | 61 | 117 | 7.8 | 8.7 | 0.00 | 0.00 | 0.00 | 58 | 1015.2 |
| 20260509172105 | 61 | 122 | 7.0 | 10.4 | 0.00 | 0.00 | 0.00 | 58 | 1015.2 |
| 20260509172005 | 61 | 110 | 6.1 | 10.4 | 0.00 | 0.00 | 0.00 | 58 | 1015.2 |
| 20260509171904 | 61 | 119 | 6.1 | 7.0 | 0.00 | 0.00 | 0.00 | 58 | 1015.2 |
| 20260509171804 | 61 | 112 | 6.1 | 7.8 | 0.00 | 0.00 | 0.00 | 58 | 1015.2 |
| 20260509171704 | 61 | 102 | 7.0 | 8.7 | 0.00 | 0.00 | 0.00 | 59 | 1015.2 |
| 20260509171534 | 61 | 115 | 7.8 | 10.4 | 0.00 | 0.00 | 0.00 | 59 | 1015.2 |
| 20260509171434 | 61 | 120 | 7.0 | 10.4 | 0.00 | 0.00 | 0.00 | 58 | 1015.2 |
| 20260509171334 | 61 | 117 | 7.8 | 10.4 | 0.00 | 0.00 | 0.00 | 58 | 1015.2 |
| 20260509171234 | 61 | 116 | 7.8 | 10.4 | 0.00 | 0.00 | 0.00 | 57 | 1015.2 |
| 20260509171104 | 61 | 113 | 7.0 | 11.3 | 0.00 | 0.00 | 0.00 | 58 | 1015.3 |
| 20260509171004 | 61 | 102 | 5.2 | 8.7 | 0.00 | 0.00 | 0.00 | 59 | 1015.3 |
| 20260509170904 | 61 | 99 | 7.0 | 7.8 | 0.00 | 0.00 | 0.00 | 58 | 1015.2 |
| 20260509170804 | 61 | 100 | 7.8 | 8.7 | 0.00 | 0.00 | 0.00 | 57 | 1015.3 |
| 20260509170704 | 61 | 119 | 7.0 | 10.4 | 0.00 | 0.00 | 0.00 | 59 | 1015.3 |
| 20260509170534 | 61 | 105 | 7.0 | 8.7 | 0.00 | 0.00 | 0.00 | 58 | 1015.3 |
| 20260509170434 | 61 | 121 | 7.8 | 10.4 | 0.00 | 0.00 | 0.00 | 59 | 1015.3 |
| 20260509170334 | 61 | 116 | 7.8 | 10.4 | 0.00 | 0.00 | 0.00 | 59 | 1015.3 |
| 20260509170234 | 61 | 110 | 8.7 | 10.4 | 0.00 | 0.00 | 0.00 | 59 | 1015.3 |
| 20260509170134 | 61 | 94 | 8.7 | 11.3 | 0.00 | 0.00 | 0.00 | 59 | 1015.3 |
| 20260509170034 | 61 | 122 | 8.7 | 10.4 | 0.00 | 0.00 | 0.00 | 59 | 1015.3 |
| 20260509165933 | 61 | 136 | 10.4 | 12.2 | 0.00 | 0.00 | 0.00 | 59 | 1015.3 |
| 20260509165833 | 61 | 126 | 10.4 | 11.3 | 0.00 | 0.00 | 0.00 | 59 | 1015.3 |
| 20260509165733 | 61 | 126 | 10.4 | 13.0 | 0.00 | 0.00 | 0.00 | 58 | 1015.4 |
| 20260509165633 | 61 | 130 | 10.4 | 13.0 | 0.00 | 0.00 | 0.00 | 58 | 1015.4 |
| 20260509165533 | 61 | 126 | 7.8 | 13.0 | 0.00 | 0.00 | 0.00 | 58 | 1015.4 |
| 20260509165433 | 61 | 127 | 10.4 | 10.4 | 0.00 | 0.00 | 0.00 | 58 | 1015.4 |
| 20260509165306 | 61 | 121 | 8.7 | 12.2 | 0.00 | 0.00 | 0.00 | 59 | 1015.4 |
| 20260509165203 | 61 | 138 | 7.8 | 11.3 | 0.00 | 0.00 | 0.00 | 59 | 1015.4 |
| 20260509165103 | 61 | 139 | 8.7 | 12.2 | 0.00 | 0.00 | 0.00 | 59 | 1015.4 |
| 20260509165003 | 61 | 123 | 7.8 | 10.4 | 0.00 | 0.00 | 0.00 | 59 | 1015.5 |
| 20260509164903 | 61 | 126 | 7.8 | 10.4 | 0.00 | 0.00 | 0.00 | 59 | 1015.4 |
| 20260509164803 | 61 | 134 | 8.7 | 11.3 | 0.00 | 0.00 | 0.00 | 59 | 1015.5 |
| 20260509164703 | 61 | 126 | 7.8 | 10.4 | 0.00 | 0.00 | 0.00 | 59 | 1015.4 |
| 20260509164603 | 61 | 131 | 7.8 | 10.4 | 0.00 | 0.00 | 0.00 | 59 | 1015.4 |
| 20260509164502 | 61 | 128 | 8.7 | 10.4 | 0.00 | 0.00 | 0.00 | 60 | 1015.5 |
| 20260509164333 | 61 | 119 | 11.3 | 14.8 | 0.00 | 0.00 | 0.00 | 58 | 1015.5 |
| 20260509164232 | 61 | 120 | 8.7 | 13.0 | 0.00 | 0.00 | 0.00 | 58 | 1015.5 |
| 20260509164132 | 61 | 134 | 7.8 | 10.4 | 0.00 | 0.00 | 0.00 | 59 | 1015.5 |
| 20260509164032 | 61 | 136 | 7.8 | 10.4 | 0.00 | 0.00 | 0.00 | 59 | 1015.5 |
| 20260509163932 | 61 | 121 | 7.8 | 10.4 | 0.00 | 0.00 | 0.00 | 58 | 1015.5 |
| 20260509163832 | 61 | 117 | 7.8 | 10.4 | 0.00 | 0.00 | 0.00 | 59 | 1015.5 |
| 20260509163732 | 61 | 129 | 7.0 | 10.4 | 0.00 | 0.00 | 0.00 | 59 | 1015.5 |
| 20260509163632 | 61 | 110 | 7.0 | 10.4 | 0.00 | 0.00 | 0.00 | 58 | 1015.5 |
| 20260509163532 | 61 | 120 | 8.7 | 10.4 | 0.00 | 0.00 | 0.00 | 58 | 1015.5 |
| 20260509163432 | 61 | 109 | 7.8 | 11.3 | 0.00 | 0.00 | 0.00 | 59 | 1015.6 |
| 20260509163332 | 61 | 118 | 7.8 | 10.4 | 0.00 | 0.00 | 0.00 | 59 | 1015.5 |
| 20260509163232 | 61 | 125 | 7.0 | 10.4 | 0.00 | 0.00 | 0.00 | 60 | 1015.6 |
| 20260509163132 | 61 | 111 | 6.1 | 8.7 | 0.00 | 0.00 | 0.00 | 60 | 1015.6 |
| 20260509163032 | 61 | 122 | 7.0 | 10.4 | 0.00 | 0.00 | 0.00 | 60 | 1015.6 |
| 20260509162932 | 61 | 111 | 6.1 | 8.7 | 0.00 | 0.00 | 0.00 | 61 | 1015.6 |
| 20260509162831 | 61 | 121 | 7.0 | 7.8 | 0.00 | 0.00 | 0.00 | 61 | 1015.6 |
| 20260509162731 | 60 | 119 | 8.7 | 10.4 | 0.00 | 0.00 | 0.00 | 60 | 1015.6 |
| 20260509162631 | 60 | 129 | 8.7 | 11.3 | 0.00 | 0.00 | 0.00 | 59 | 1015.6 |
| 20260509162531 | 61 | 127 | 11.3 | 13.9 | 0.00 | 0.00 | 0.00 | 60 | 1015.6 |
| 20260509162431 | 61 | 124 | 8.7 | 12.2 | 0.00 | 0.00 | 0.00 | 60 | 1015.6 |
| 20260509162331 | 61 | 127 | 7.8 | 10.4 | 0.00 | 0.00 | 0.00 | 59 | 1015.5 |
| 20260509162231 | 61 | 122 | 8.7 | 10.4 | 0.00 | 0.00 | 0.00 | 59 | 1015.5 |
| 20260509162131 | 61 | 113 | 7.8 | 13.0 | 0.00 | 0.00 | 0.00 | 59 | 1015.5 |
| 20260509162031 | 61 | 123 | 7.0 | 10.4 | 0.00 | 0.00 | 0.00 | 59 | 1015.5 |
| 20260509161931 | 61 | 134 | 7.0 | 10.4 | 0.00 | 0.00 | 0.00 | 59 | 1015.5 |
| 20260509161831 | 61 | 121 | 7.8 | 11.3 | 0.00 | 0.00 | 0.00 | 59 | 1015.5 |
| 20260509161731 | 61 | 128 | 6.1 | 10.4 | 0.00 | 0.00 | 0.00 | 59 | 1015.5 |
| 20260509161631 | 61 | 139 | 7.0 | 7.8 | 0.00 | 0.00 | 0.00 | 60 | 1015.5 |
| 20260509161531 | 61 | 112 | 7.8 | 10.4 | 0.00 | 0.00 | 0.00 | 59 | 1015.6 |
| 20260509161431 | 61 | 111 | 7.8 | 10.4 | 0.00 | 0.00 | 0.00 | 60 | 1015.6 |
| 20260509161331 | 61 | 117 | 7.8 | 10.4 | 0.00 | 0.00 | 0.00 | 59 | 1015.6 |
| 20260509161231 | 61 | 114 | 7.0 | 10.4 | 0.00 | 0.00 | 0.00 | 59 | 1015.6 |
| 20260509161130 | 61 | 129 | 7.0 | 10.4 | 0.00 | 0.00 | 0.00 | 59 | 1015.5 |
| 20260509161000 | 61 | 124 | 7.8 | 10.4 | 0.00 | 0.00 | 0.00 | 60 | 1015.6 |
| 20260509160900 | 61 | 124 | 7.8 | 8.7 | 0.00 | 0.00 | 0.00 | 59 | 1015.6 |
| 20260509160800 | 61 | 126 | 7.0 | 10.4 | 0.00 | 0.00 | 0.00 | 59 | 1015.6 |
| 20260509160700 | 61 | 108 | 7.8 | 10.4 | 0.00 | 0.00 | 0.00 | 58 | 1015.6 |
| 20260509160600 | 61 | 121 | 7.8 | 11.3 | 0.00 | 0.00 | 0.00 | 59 | 1015.6 |
| 20260509160500 | 61 | 130 | 6.1 | 10.4 | 0.00 | 0.00 | 0.00 | 59 | 1015.6 |
| 20260509160400 | 61 | 109 | 6.1 | 7.8 | 0.00 | 0.00 | 0.00 | 59 | 1015.6 |
| 20260509160300 | 61 | 118 | 7.8 | 10.4 | 0.00 | 0.00 | 0.00 | 59 | 1015.6 |
| 20260509160200 | 61 | 127 | 7.8 | 10.4 | 0.00 | 0.00 | 0.00 | 58 | 1015.6 |
| 20260509160100 | 61 | 122 | 7.0 | 10.4 | 0.00 | 0.00 | 0.00 | 59 | 1015.6 |
| 20260509160000 | 61 | 106 | 7.0 | 10.4 | 0.00 | 0.00 | 0.00 | 58 | 1015.6 |
| 20260509155900 | 61 | 118 | 8.7 | 13.0 | 0.00 | 0.00 | 0.00 | 58 | 1015.6 |
| 20260509155800 | 61 | 114 | 6.1 | 14.8 | 0.00 | 0.00 | 0.00 | 59 | 1015.6 |
| 20260509155700 | 61 | 115 | 6.1 | 8.7 | 0.00 | 0.00 | 0.00 | 58 | 1015.6 |
| 20260509155559 | 61 | 135 | 7.8 | 11.3 | 0.00 | 0.00 | 0.00 | 59 | 1015.6 |
| 20260509155459 | 61 | 108 | 7.8 | 10.4 | 0.00 | 0.00 | 0.00 | 58 | 1015.6 |
| 20260509155359 | 61 | 111 | 7.8 | 11.3 | 0.00 | 0.00 | 0.00 | 58 | 1015.6 |
| 20260509155159 | 61 | 100 | 7.0 | 10.4 | 0.00 | 0.00 | 0.00 | 58 | 1015.6 |
| 20260509155059 | 61 | 110 | 8.7 | 11.3 | 0.00 | 0.00 | 0.00 | 57 | 1015.6 |
| 20260509155010 | 61 | 114 | 10.4 | 13.0 | 0.00 | 0.00 | 0.00 | 58 | 1015.6 |
| 20260509154759 | 61 | 125 | 7.8 | 10.4 | 0.00 | 0.00 | 0.00 | 58 | 1015.6 |
| 20260509154659 | 62 | 131 | 8.7 | 12.2 | 0.00 | 0.00 | 0.00 | 58 | 1015.6 |
| 20260509154559 | 62 | 128 | 8.7 | 12.2 | 0.00 | 0.00 | 0.00 | 58 | 1015.6 |
| 20260509154459 | 62 | 122 | 10.4 | 12.2 | 0.00 | 0.00 | 0.00 | 57 | 1015.6 |
| 20260509154258 | 62 | 121 | 7.0 | 11.3 | 0.00 | 0.00 | 0.00 | 58 | 1015.6 |
| 20260509154252 | 62 | 150 | 6.1 | 10.4 | 0.00 | 0.00 | 0.00 | 58 | 1015.6 |
| 20260509153958 | 62 | 133 | 7.0 | 8.7 | 0.00 | 0.00 | 0.00 | 57 | 1015.5 |
| 20260509153858 | 62 | 135 | 7.8 | 10.4 | 0.00 | 0.00 | 0.00 | 57 | 1015.6 |
| 20260509153758 | 62 | 139 | 7.0 | 10.4 | 0.00 | 0.00 | 0.00 | 57 | 1015.5 |
| 20260509153658 | 62 | 144 | 7.0 | 10.4 | 0.00 | 0.00 | 0.00 | 57 | 1015.5 |
| 20260509153558 | 62 | 127 | 8.7 | 10.4 | 0.00 | 0.00 | 0.00 | 56 | 1015.5 |
| 20260509153458 | 62 | 128 | 7.8 | 12.2 | 0.00 | 0.00 | 0.00 | 57 | 1015.5 |
| 20260509153358 | 63 | 135 | 7.0 | 10.4 | 0.00 | 0.00 | 0.00 | 57 | 1015.5 |
| 20260509153258 | 63 | 127 | 7.8 | 11.3 | 0.00 | 0.00 | 0.00 | 56 | 1015.5 |
| 20260509153158 | 63 | 122 | 8.7 | 12.2 | 0.00 | 0.00 | 0.00 | 56 | 1015.5 |
| 20260509153058 | 63 | 134 | 8.7 | 11.3 | 0.00 | 0.00 | 0.00 | 56 | 1015.5 |
| 20260509152958 | 63 | 124 | 7.0 | 13.9 | 0.00 | 0.00 | 0.00 | 56 | 1015.6 |
| 20260509152857 | 63 | 145 | 7.0 | 8.7 | 0.00 | 0.00 | 0.00 | 56 | 1015.6 |
| 20260509152757 | 63 | 124 | 7.0 | 11.3 | 0.00 | 0.00 | 0.00 | 56 | 1015.6 |
| 20260509152657 | 63 | 130 | 7.0 | 8.7 | 0.00 | 0.00 | 0.00 | 57 | 1015.6 |
| 20260509152557 | 63 | 161 | 7.0 | 10.4 | 0.00 | 0.00 | 0.00 | 56 | 1015.5 |
| 20260509152457 | 63 | 122 | 7.8 | 10.4 | 0.00 | 0.00 | 0.00 | 57 | 1015.5 |
| 20260509152357 | 63 | 114 | 8.7 | 10.4 | 0.00 | 0.00 | 0.00 | 56 | 1015.5 |
| 20260509152257 | 63 | 143 | 6.1 | 11.3 | 0.00 | 0.00 | 0.00 | 57 | 1015.6 |
| 20260509152157 | 63 | 148 | 6.1 | 7.8 | 0.00 | 0.00 | 0.00 | 57 | 1015.5 |
| 20260509152057 | 63 | 139 | 7.0 | 10.4 | 0.00 | 0.00 | 0.00 | 57 | 1015.6 |
| 20260509151957 | 63 | 143 | 6.1 | 11.3 | 0.00 | 0.00 | 0.00 | 57 | 1015.6 |
| 20260509151857 | 63 | 140 | 7.8 | 10.4 | 0.00 | 0.00 | 0.00 | 57 | 1015.6 |
| 20260509151757 | 63 | 158 | 7.8 | 10.4 | 0.00 | 0.00 | 0.00 | 58 | 1015.6 |
| 20260509151657 | 63 | 146 | 7.0 | 10.4 | 0.00 | 0.00 | 0.00 | 58 | 1015.6 |
| 20260509151556 | 63 | 139 | 7.8 | 10.4 | 0.00 | 0.00 | 0.00 | 58 | 1015.6 |
| 20260509151456 | 63 | 135 | 7.0 | 10.4 | 0.00 | 0.00 | 0.00 | 59 | 1015.6 |
| 20260509151356 | 62 | 127 | 7.8 | 10.4 | 0.00 | 0.00 | 0.00 | 58 | 1015.6 |
| 20260509151256 | 62 | 136 | 7.8 | 12.2 | 0.00 | 0.00 | 0.00 | 58 | 1015.6 |
| 20260509151156 | 62 | 132 | 7.0 | 10.4 | 0.00 | 0.00 | 0.00 | 59 | 1015.6 |
| 20260509151056 | 62 | 123 | 7.8 | 10.4 | 0.00 | 0.00 | 0.00 | 57 | 1015.6 |
| 20260509150956 | 62 | 138 | 8.7 | 11.3 | 0.00 | 0.00 | 0.00 | 58 | 1015.6 |
| 20260509150856 | 62 | 144 | 7.0 | 12.2 | 0.00 | 0.00 | 0.00 | 58 | 1015.6 |
| 20260509150756 | 62 | 112 | 7.0 | 10.4 | 0.00 | 0.00 | 0.00 | 59 | 1015.6 |
| 20260509150656 | 62 | 131 | 6.1 | 8.7 | 0.00 | 0.00 | 0.00 | 59 | 1015.6 |
| 20260509150556 | 62 | 136 | 6.1 | 7.8 | 0.00 | 0.00 | 0.00 | 59 | 1015.7 |
| 20260509150456 | 62 | 146 | 5.2 | 7.8 | 0.00 | 0.00 | 0.00 | 58 | 1015.7 |
| 20260509150356 | 62 | 142 | 7.8 | 10.4 | 0.00 | 0.00 | 0.00 | 57 | 1015.7 |
| 20260509150255 | 62 | 144 | 8.7 | 11.3 | 0.00 | 0.00 | 0.00 | 56 | 1015.7 |
| 20260509150156 | 63 | 127 | 8.7 | 12.2 | 0.00 | 0.00 | 0.00 | 56 | 1015.7 |
| 20260509150055 | 63 | 141 | 6.1 | 12.2 | 0.00 | 0.00 | 0.00 | 58 | 1015.7 |
| 20260509145955 | 63 | 142 | 6.1 | 7.0 | 0.00 | 0.00 | 0.00 | 57 | 1015.7 |
| 20260509145855 | 63 | 118 | 7.0 | 8.7 | 0.00 | 0.00 | 0.00 | 57 | 1015.8 |
| 20260509145755 | 63 | 117 | 7.0 | 8.7 | 0.00 | 0.00 | 0.00 | 57 | 1015.8 |
| 20260509145655 | 63 | 148 | 6.1 | 8.7 | 0.00 | 0.00 | 0.00 | 57 | 1015.8 |
| 20260509145555 | 63 | 126 | 7.0 | 8.7 | 0.00 | 0.00 | 0.00 | 56 | 1015.8 |
| 20260509145455 | 63 | 121 | 6.1 | 11.3 | 0.00 | 0.00 | 0.00 | 58 | 1015.8 |
| 20260509145355 | 63 | 144 | 7.8 | 11.3 | 0.00 | 0.00 | 0.00 | 57 | 1015.8 |
| 20260509145255 | 63 | 131 | 8.7 | 10.4 | 0.00 | 0.00 | 0.00 | 55 | 1015.8 |
| 20260509145155 | 63 | 129 | 7.8 | 12.2 | 0.00 | 0.00 | 0.00 | 57 | 1015.8 |
| 20260509145055 | 63 | 131 | 6.1 | 10.4 | 0.00 | 0.00 | 0.00 | 58 | 1015.9 |
| 20260509144955 | 63 | 143 | 7.8 | 10.4 | 0.00 | 0.00 | 0.00 | 57 | 1015.9 |
| 20260509144855 | 63 | 129 | 7.8 | 12.2 | 0.00 | 0.00 | 0.00 | 56 | 1015.9 |
| 20260509144755 | 63 | 141 | 8.7 | 12.2 | 0.00 | 0.00 | 0.00 | 57 | 1015.9 |
| 20260509144655 | 63 | 137 | 7.8 | 11.3 | 0.00 | 0.00 | 0.00 | 57 | 1015.9 |
| 20260509144555 | 63 | 133 | 7.0 | 10.4 | 0.00 | 0.00 | 0.00 | 57 | 1015.9 |
| 20260509144455 | 63 | 140 | 7.0 | 10.4 | 0.00 | 0.00 | 0.00 | 56 | 1015.9 |
| 20260509144354 | 63 | 134 | 7.0 | 13.9 | 0.00 | 0.00 | 0.00 | 56 | 1016.0 |
| 20260509144254 | 63 | 144 | 7.8 | 10.4 | 0.00 | 0.00 | 0.00 | 56 | 1016.0 |
| 20260509144154 | 63 | 153 | 7.0 | 12.2 | 0.00 | 0.00 | 0.00 | 56 | 1016.0 |
| 20260509144054 | 63 | 143 | 7.8 | 10.4 | 0.00 | 0.00 | 0.00 | 56 | 1016.0 |
| 20260509143954 | 63 | 134 | 7.8 | 10.4 | 0.00 | 0.00 | 0.00 | 57 | 1016.0 |
| 20260509143854 | 63 | 136 | 5.2 | 11.3 | 0.00 | 0.00 | 0.00 | 56 | 1016.0 |
| 20260509143754 | 63 | 152 | 7.0 | 7.8 | 0.00 | 0.00 | 0.00 | 56 | 1016.0 |
| 20260509143654 | 63 | 158 | 8.7 | 12.2 | 0.00 | 0.00 | 0.00 | 56 | 1016.0 |
| 20260509143554 | 63 | 135 | 10.4 | 11.3 | 0.00 | 0.00 | 0.00 | 55 | 1016.0 |
| 20260509143424 | 63 | 124 | 10.4 | 13.0 | 0.00 | 0.00 | 0.00 | 55 | 1016.1 |
| 20260509143324 | 63 | 127 | 8.7 | 11.3 | 0.00 | 0.00 | 0.00 | 55 | 1016.0 |
| 20260509143224 | 63 | 137 | 7.8 | 11.3 | 0.00 | 0.00 | 0.00 | 55 | 1016.0 |
| 20260509143125 | 63 | 156 | 8.7 | 11.3 | 0.00 | 0.00 | 0.00 | 55 | 1016.0 |
| 20260509143025 | 63 | 141 | 7.8 | 13.0 | 0.00 | 0.00 | 0.00 | 55 | 1016.1 |
| 20260509142923 | 63 | 130 | 7.0 | 11.3 | 0.00 | 0.00 | 0.00 | 56 | 1016.1 |
| 20260509142825 | 63 | 132 | 6.1 | 11.3 | 0.00 | 0.00 | 0.00 | 56 | 1016.1 |
| 20260509142723 | 63 | 140 | 6.1 | 8.7 | 0.00 | 0.00 | 0.00 | 56 | 1016.1 |
| 20260509142623 | 63 | 140 | 6.1 | 7.8 | 0.00 | 0.00 | 0.00 | 55 | 1016.1 |
| 20260509142523 | 63 | 154 | 7.0 | 8.7 | 0.00 | 0.00 | 0.00 | 56 | 1016.1 |
| 20260509142423 | 62 | 146 | 7.0 | 10.4 | 0.00 | 0.00 | 0.00 | 55 | 1016.1 |
| 20260509142323 | 62 | 147 | 8.7 | 10.4 | 0.00 | 0.00 | 0.00 | 55 | 1016.1 |
| 20260509142224 | 63 | 138 | 8.7 | 11.3 | 0.00 | 0.00 | 0.00 | 55 | 1016.1 |
| 20260509142123 | 63 | 137 | 7.8 | 11.3 | 0.00 | 0.00 | 0.00 | 55 | 1016.2 |
| 20260509142023 | 63 | 138 | 10.4 | 11.3 | 0.00 | 0.00 | 0.00 | 54 | 1016.2 |
| 20260509141923 | 63 | 144 | 7.8 | 11.3 | 0.00 | 0.00 | 0.00 | 55 | 1016.2 |
| 20260509141823 | 63 | 148 | 7.8 | 10.4 | 0.00 | 0.00 | 0.00 | 55 | 1016.2 |
| 20260509141723 | 63 | 135 | 8.7 | 12.2 | 0.00 | 0.00 | 0.00 | 55 | 1016.2 |
| 20260509141623 | 63 | 141 | 7.8 | 12.2 | 0.00 | 0.00 | 0.00 | 56 | 1016.2 |
| 20260509141523 | 62 | 135 | 7.8 | 11.3 | 0.00 | 0.00 | 0.00 | 56 | 1016.2 |
| 20260509141423 | 62 | 134 | 8.7 | 11.3 | 0.00 | 0.00 | 0.00 | 55 | 1016.2 |
| 20260509141327 | 62 | 126 | 7.8 | 12.2 | 0.00 | 0.00 | 0.00 | 56 | 1016.3 |
| 20260509141222 | 62 | 127 | 8.7 | 12.2 | 0.00 | 0.00 | 0.00 | 55 | 1016.2 |
| 20260509141122 | 63 | 127 | 8.7 | 12.2 | 0.00 | 0.00 | 0.00 | 55 | 1016.2 |
| 20260509141022 | 63 | 137 | 7.8 | 10.4 | 0.00 | 0.00 | 0.00 | 56 | 1016.2 |
| 20260509140922 | 63 | 138 | 7.8 | 10.4 | 0.00 | 0.00 | 0.00 | 56 | 1016.3 |
| 20260509140822 | 63 | 125 | 8.7 | 11.3 | 0.00 | 0.00 | 0.00 | 55 | 1016.2 |
| 20260509140722 | 63 | 140 | 7.0 | 11.3 | 0.00 | 0.00 | 0.00 | 55 | 1016.2 |
| 20260509140622 | 63 | 149 | 7.0 | 10.4 | 0.00 | 0.00 | 0.00 | 56 | 1016.2 |
| 20260509140522 | 63 | 149 | 7.0 | 10.4 | 0.00 | 0.00 | 0.00 | 56 | 1016.2 |
| 20260509140422 | 63 | 134 | 7.8 | 10.4 | 0.00 | 0.00 | 0.00 | 56 | 1016.2 |
| 20260509140322 | 63 | 139 | 7.8 | 10.4 | 0.00 | 0.00 | 0.00 | 56 | 1016.2 |
| 20260509140222 | 63 | 147 | 7.8 | 10.4 | 0.00 | 0.00 | 0.00 | 55 | 1016.2 |
| 20260509140121 | 63 | 139 | 7.8 | 10.4 | 0.00 | 0.00 | 0.00 | 54 | 1016.2 |
| 20260509140021 | 63 | 134 | 7.0 | 10.4 | 0.00 | 0.00 | 0.00 | 55 | 1016.2 |
| 20260509135921 | 64 | 161 | 7.0 | 10.4 | 0.00 | 0.00 | 0.00 | 55 | 1016.2 |
| 20260509135822 | 64 | 148 | 7.0 | 10.4 | 0.00 | 0.00 | 0.00 | 56 | 1016.2 |
| 20260509135721 | 64 | 149 | 7.0 | 11.3 | 0.00 | 0.00 | 0.00 | 56 | 1016.2 |
| 20260509135621 | 64 | 132 | 7.8 | 8.7 | 0.00 | 0.00 | 0.00 | 56 | 1016.2 |
| 20260509135521 | 63 | 125 | 7.8 | 10.4 | 0.00 | 0.00 | 0.00 | 56 | 1016.2 |
| 20260509135421 | 63 | 135 | 7.8 | 11.3 | 0.00 | 0.00 | 0.00 | 57 | 1016.2 |
| 20260509135321 | 63 | 141 | 7.8 | 11.3 | 0.00 | 0.00 | 0.00 | 56 | 1016.2 |
| 20260509135221 | 63 | 134 | 7.0 | 11.3 | 0.00 | 0.00 | 0.00 | 57 | 1016.2 |
| 20260509135121 | 63 | 140 | 7.0 | 8.7 | 0.00 | 0.00 | 0.00 | 57 | 1016.2 |
| 20260509135021 | 63 | 155 | 7.0 | 11.3 | 0.00 | 0.00 | 0.00 | 58 | 1016.2 |
| 20260509134921 | 63 | 152 | 7.8 | 11.3 | 0.00 | 0.00 | 0.00 | 58 | 1016.3 |
| 20260509134821 | 63 | 141 | 8.7 | 11.3 | 0.00 | 0.00 | 0.00 | 57 | 1016.2 |
| 20260509134721 | 63 | 137 | 8.7 | 11.3 | 0.00 | 0.00 | 0.00 | 57 | 1016.2 |
| 20260509134621 | 63 | 137 | 8.7 | 11.3 | 0.00 | 0.00 | 0.00 | 58 | 1016.3 |
| 20260509134521 | 63 | 127 | 8.7 | 11.3 | 0.00 | 0.00 | 0.00 | 57 | 1016.2 |
| 20260509134421 | 63 | 138 | 7.8 | 11.3 | 0.00 | 0.00 | 0.00 | 58 | 1016.2 |
| 20260509134320 | 63 | 135 | 7.0 | 10.4 | 0.00 | 0.00 | 0.00 | 59 | 1016.2 |
| 20260509134150 | 63 | 137 | 7.8 | 12.2 | 0.00 | 0.00 | 0.00 | 59 | 1016.2 |
| 20260509134050 | 63 | 144 | 7.8 | 10.4 | 0.00 | 0.00 | 0.00 | 59 | 1016.2 |
| 20260509133950 | 63 | 142 | 8.7 | 11.3 | 0.00 | 0.00 | 0.00 | 60 | 1016.2 |
| 20260509133850 | 63 | 135 | 8.7 | 11.3 | 0.00 | 0.00 | 0.00 | 59 | 1016.2 |
| 20260509133750 | 63 | 146 | 7.0 | 14.8 | 0.00 | 0.00 | 0.00 | 59 | 1016.2 |
| 20260509133650 | 63 | 135 | 7.0 | 8.7 | 0.00 | 0.00 | 0.00 | 59 | 1016.2 |
| 20260509133550 | 63 | 131 | 8.7 | 11.3 | 0.00 | 0.00 | 0.00 | 59 | 1016.1 |
| 20260509133450 | 63 | 132 | 8.7 | 11.3 | 0.00 | 0.00 | 0.00 | 59 | 1016.2 |
| 20260509133350 | 63 | 142 | 8.7 | 12.2 | 0.00 | 0.00 | 0.00 | 59 | 1016.2 |
| 20260509133250 | 63 | 121 | 7.8 | 12.2 | 0.00 | 0.00 | 0.00 | 59 | 1016.2 |
| 20260509133150 | 63 | 138 | 7.8 | 11.3 | 0.00 | 0.00 | 0.00 | 60 | 1016.2 |
| 20260509133050 | 63 | 138 | 7.8 | 10.4 | 0.00 | 0.00 | 0.00 | 60 | 1016.2 |
| 20260509132950 | 63 | 153 | 8.7 | 15.6 | 0.00 | 0.00 | 0.00 | 61 | 1016.2 |
| 20260509132850 | 63 | 140 | 10.4 | 13.0 | 0.00 | 0.00 | 0.00 | 61 | 1016.2 |
| 20260509132750 | 63 | 129 | 11.3 | 13.0 | 0.00 | 0.00 | 0.00 | 61 | 1016.2 |
| 20260509132649 | 63 | 129 | 11.3 | 14.8 | 0.00 | 0.00 | 0.00 | 61 | 1016.2 |
| 20260509132549 | 63 | 135 | 11.3 | 13.0 | 0.00 | 0.00 | 0.00 | 59 | 1016.1 |
| 20260509132449 | 63 | 131 | 11.3 | 14.8 | 0.00 | 0.00 | 0.00 | 60 | 1016.2 |
| 20260509132349 | 63 | 138 | 10.4 | 13.0 | 0.00 | 0.00 | 0.00 | 59 | 1016.2 |
| 20260509132249 | 63 | 126 | 8.7 | 12.2 | 0.00 | 0.00 | 0.00 | 60 | 1016.2 |
| 20260509132149 | 63 | 143 | 10.4 | 11.3 | 0.00 | 0.00 | 0.00 | 60 | 1016.2 |
| 20260509132049 | 64 | 129 | 11.3 | 13.9 | 0.00 | 0.00 | 0.00 | 59 | 1016.2 |
| 20260509131919 | 64 | 137 | 8.7 | 13.0 | 0.00 | 0.00 | 0.00 | 59 | 1016.2 |
| 20260509131819 | 64 | 142 | 8.7 | 11.3 | 0.00 | 0.00 | 0.00 | 58 | 1016.1 |
| 20260509131719 | 64 | 139 | 7.8 | 14.8 | 0.00 | 0.00 | 0.00 | 59 | 1016.1 |
| 20260509131619 | 64 | 134 | 8.7 | 10.4 | 0.00 | 0.00 | 0.00 | 59 | 1016.2 |
| 20260509131519 | 64 | 121 | 8.7 | 15.6 | 0.00 | 0.00 | 0.00 | 58 | 1016.2 |
| 20260509131418 | 64 | 137 | 8.7 | 12.2 | 0.00 | 0.00 | 0.00 | 59 | 1016.2 |
| 20260509131318 | 64 | 129 | 7.0 | 12.2 | 0.00 | 0.00 | 0.00 | 60 | 1016.2 |
| 20260509131218 | 64 | 133 | 7.8 | 11.3 | 0.00 | 0.00 | 0.00 | 60 | 1016.2 |
| 20260509131118 | 64 | 112 | 8.7 | 10.4 | 0.00 | 0.00 | 0.00 | 59 | 1016.2 |